| time (UTC) | temp F | wind direction | speed MPH | gust MPH | rain 1hr in | rain 24hr in | rain mn in | humidity % | barometer mb |
| 20260502194900 | 55 | 148 | 2.0 | 6.0 | 0.00 | 0.00 | 0.00 | 44 | 1016.5 |
| 20260502194800 | 55 | 355 | 1.0 | 6.0 | 0.00 | 0.00 | 0.00 | 46 | 1016.6 |
| 20260502194659 | 55 | 328 | 1.0 | 6.0 | 0.00 | 0.00 | 0.00 | 45 | 1016.6 |
| 20260502194559 | 55 | 317 | 2.0 | 6.0 | 0.00 | 0.00 | 0.00 | 44 | 1016.5 |
| 20260502194501 | 54 | 360 | 3.0 | 11.0 | 0.00 | 0.00 | 0.00 | 43 | 1016.5 |
| 20260502194300 | 54 | 186 | 4.0 | 11.0 | 0.00 | 0.00 | 0.00 | 49 | 1016.5 |
| 20260502194159 | 54 | 345 | 2.0 | 11.0 | 0.00 | 0.00 | 0.00 | 47 | 1016.4 |
| 20260502194000 | 54 | 288 | 0.0 | 11.0 | 0.00 | 0.00 | 0.00 | 42 | 1016.4 |
| 20260502193859 | 54 | 246 | 0.0 | 11.0 | 0.00 | 0.00 | 0.00 | 41 | 1016.5 |
| 20260502193802 | 54 | 5 | 3.0 | 11.0 | 0.00 | 0.00 | 0.00 | 40 | 1016.5 |
| 20260502193700 | 54 | 80 | 3.0 | 11.0 | 0.00 | 0.00 | 0.00 | 42 | 1016.5 |
| 20260502193601 | 54 | 329 | 2.0 | 9.0 | 0.00 | 0.00 | 0.00 | 41 | 1016.6 |
| 20260502193401 | 54 | 340 | 3.0 | 9.0 | 0.00 | 0.00 | 0.00 | 42 | 1016.5 |
| 20260502193300 | 54 | 351 | 4.0 | 9.0 | 0.00 | 0.00 | 0.00 | 41 | 1016.5 |
| 20260502193201 | 54 | 329 | 3.0 | 9.0 | 0.00 | 0.00 | 0.00 | 40 | 1016.5 |
| 20260502193100 | 55 | 16 | 3.0 | 9.0 | 0.00 | 0.00 | 0.00 | 40 | 1016.6 |
| 20260502193002 | 55 | 5 | 8.0 | 9.0 | 0.00 | 0.00 | 0.00 | 41 | 1016.6 |
| 20260502192900 | 55 | 317 | 3.0 | 9.0 | 0.00 | 0.00 | 0.00 | 40 | 1016.6 |
| 20260502192800 | 55 | 5 | 5.0 | 9.0 | 0.00 | 0.00 | 0.00 | 41 | 1016.6 |
| 20260502192700 | 55 | 355 | 3.0 | 8.0 | 0.00 | 0.00 | 0.00 | 41 | 1016.5 |
| 20260502192601 | 55 | 350 | 3.0 | 8.0 | 0.00 | 0.00 | 0.00 | 42 | 1016.6 |
| 20260502192500 | 55 | 329 | 3.0 | 6.0 | 0.00 | 0.00 | 0.00 | 42 | 1016.6 |
| 20260502192403 | 55 | 303 | 1.0 | 10.0 | 0.00 | 0.00 | 0.00 | 42 | 1016.5 |
| 20260502192300 | 55 | 347 | 2.0 | 13.0 | 0.00 | 0.00 | 0.00 | 42 | 1016.5 |
| 20260502192201 | 55 | 324 | 1.0 | 13.0 | 0.00 | 0.00 | 0.00 | 42 | 1016.6 |
| 20260502192101 | 55 | 315 | 1.0 | 13.0 | 0.00 | 0.00 | 0.00 | 40 | 1016.6 |
| 20260502192001 | 55 | 5 | 2.0 | 13.0 | 0.00 | 0.00 | 0.00 | 42 | 1016.6 |
| 20260502191802 | 55 | 323 | 2.0 | 13.0 | 0.00 | 0.00 | 0.00 | 43 | 1016.5 |
| 20260502191700 | 55 | 344 | 3.0 | 13.0 | 0.00 | 0.00 | 0.00 | 44 | 1016.5 |
| 20260502191501 | 55 | 360 | 4.0 | 13.0 | 0.00 | 0.00 | 0.00 | 42 | 1016.6 |
| 20260502191402 | 55 | 28 | 5.0 | 10.0 | 0.00 | 0.00 | 0.00 | 44 | 1016.6 |
| 20260502191300 | 54 | 11 | 4.0 | 10.0 | 0.00 | 0.00 | 0.00 | 44 | 1016.6 |
| 20260502191200 | 54 | 355 | 6.0 | 10.0 | 0.00 | 0.00 | 0.00 | 45 | 1016.7 |
| 20260502191100 | 54 | 331 | 0.0 | 10.0 | 0.00 | 0.00 | 0.00 | 44 | 1016.7 |
| 20260502191000 | 54 | 324 | 0.0 | 10.0 | 0.00 | 0.00 | 0.00 | 44 | 1016.7 |
| 20260502190801 | 54 | 294 | 1.0 | 10.0 | 0.00 | 0.00 | 0.00 | 45 | 1016.8 |
| 20260502190500 | 54 | 10 | 3.0 | 10.0 | 0.00 | 0.00 | 0.00 | 44 | 1016.7 |
| 20260502190400 | 54 | 355 | 1.0 | 5.0 | 0.00 | 0.00 | 0.00 | 44 | 1016.7 |
| 20260502190201 | 54 | 337 | 3.0 | 6.0 | 0.00 | 0.00 | 0.00 | 44 | 1016.7 |
| 20260502190059 | 54 | 355 | 2.0 | 6.0 | 0.00 | 0.00 | 0.00 | 45 | 1016.8 |
| 20260502185901 | 54 | 324 | 0.0 | 6.0 | 0.00 | 0.00 | 0.00 | 43 | 1016.8 |
| 20260502185800 | 54 | 338 | 0.0 | 6.0 | 0.00 | 0.00 | 0.00 | 45 | 1016.8 |
| 20260502185604 | 54 | 347 | 3.0 | 6.0 | 0.00 | 0.00 | 0.00 | 44 | 1016.8 |
| 20260502185503 | 54 | 320 | 2.0 | 6.0 | 0.00 | 0.00 | 0.00 | 43 | 1016.7 |
| 20260502185300 | 54 | 24 | 2.0 | 4.0 | 0.00 | 0.00 | 0.00 | 45 | 1016.7 |
| 20260502185200 | 54 | 338 | 2.0 | 8.0 | 0.00 | 0.00 | 0.00 | 43 | 1016.8 |
| 20260502185101 | 54 | 15 | 1.0 | 8.0 | 0.00 | 0.00 | 0.00 | 45 | 1016.7 |
| 20260502185000 | 54 | 35 | 1.0 | 8.0 | 0.00 | 0.00 | 0.00 | 44 | 1016.8 |
| 20260502184900 | 54 | 360 | 2.0 | 9.0 | 0.00 | 0.00 | 0.00 | 43 | 1016.8 |
| 20260502184800 | 54 | 192 | 2.0 | 9.0 | 0.00 | 0.00 | 0.00 | 45 | 1016.7 |
| 20260502184701 | 54 | 311 | 1.0 | 9.0 | 0.00 | 0.00 | 0.00 | 45 | 1016.7 |
| 20260502184602 | 54 | 347 | 2.0 | 9.0 | 0.00 | 0.00 | 0.00 | 44 | 1016.8 |
| 20260502184500 | 54 | 287 | 2.0 | 9.0 | 0.00 | 0.00 | 0.00 | 45 | 1016.8 |
| 20260502184359 | 54 | 360 | 2.0 | 9.0 | 0.00 | 0.00 | 0.00 | 42 | 1016.8 |
| 20260502184300 | 55 | 14 | 7.0 | 9.0 | 0.00 | 0.00 | 0.00 | 42 | 1016.8 |
| 20260502184100 | 55 | 317 | 1.0 | 9.0 | 0.00 | 0.00 | 0.00 | 43 | 1016.8 |
| 20260502183900 | 55 | 19 | 2.0 | 8.0 | 0.00 | 0.00 | 0.00 | 46 | 1016.8 |
| 20260502183800 | 55 | 196 | 2.0 | 8.0 | 0.00 | 0.00 | 0.00 | 46 | 1016.8 |
| 20260502183700 | 55 | 348 | 0.0 | 8.0 | 0.00 | 0.00 | 0.00 | 46 | 1016.8 |
| 20260502183601 | 55 | 343 | 2.0 | 8.0 | 0.00 | 0.00 | 0.00 | 46 | 1016.8 |
| 20260502183501 | 54 | 334 | 3.0 | 8.0 | 0.00 | 0.00 | 0.00 | 45 | 1016.8 |
| 20260502183400 | 54 | 341 | 2.0 | 8.0 | 0.00 | 0.00 | 0.00 | 45 | 1016.9 |
| 20260502183159 | 54 | 323 | 6.0 | 6.0 | 0.00 | 0.00 | 0.00 | 46 | 1016.9 |
| 20260502183103 | 54 | 336 | 1.0 | 6.0 | 0.00 | 0.00 | 0.00 | 46 | 1016.9 |
| 20260502183001 | 54 | 355 | 1.0 | 6.0 | 0.00 | 0.00 | 0.00 | 45 | 1016.9 |
| 20260502182802 | 54 | 340 | 3.0 | 6.0 | 0.00 | 0.00 | 0.00 | 46 | 1016.9 |
| 20260502182601 | 54 | 24 | 4.0 | 6.0 | 0.00 | 0.00 | 0.00 | 45 | 1016.9 |
| 20260502182500 | 54 | 309 | 2.0 | 6.0 | 0.00 | 0.00 | 0.00 | 45 | 1016.9 |
| 20260502182401 | 54 | 22 | 6.0 | 6.0 | 0.00 | 0.00 | 0.00 | 43 | 1016.9 |
| 20260502182200 | 55 | 175 | 1.0 | 5.0 | 0.00 | 0.00 | 0.00 | 45 | 1016.9 |
| 20260502182100 | 54 | 281 | 1.0 | 5.0 | 0.00 | 0.00 | 0.00 | 46 | 1016.9 |
| 20260502182000 | 54 | 360 | 3.0 | 5.0 | 0.00 | 0.00 | 0.00 | 45 | 1016.9 |
| 20260502181900 | 54 | 346 | 4.0 | 5.0 | 0.00 | 0.00 | 0.00 | 45 | 1016.9 |
| 20260502181801 | 54 | 304 | 1.0 | 5.0 | 0.00 | 0.00 | 0.00 | 47 | 1016.9 |
| 20260502181700 | 54 | 327 | 1.0 | 5.0 | 0.00 | 0.00 | 0.00 | 46 | 1017.0 |
| 20260502181502 | 54 | 327 | 2.0 | 6.0 | 0.00 | 0.00 | 0.00 | 47 | 1016.9 |
| 20260502181400 | 54 | 345 | 0.0 | 6.0 | 0.00 | 0.00 | 0.00 | 45 | 1016.9 |
| 20260502181300 | 54 | 336 | 0.0 | 6.0 | 0.00 | 0.00 | 0.00 | 45 | 1017.0 |
| 20260502181201 | 54 | 321 | 0.0 | 6.0 | 0.00 | 0.00 | 0.00 | 45 | 1016.9 |
| 20260502181001 | 54 | 329 | 3.0 | 6.0 | 0.00 | 0.00 | 0.00 | 45 | 1016.9 |
| 20260502180901 | 54 | 326 | 4.0 | 6.0 | 0.00 | 0.00 | 0.00 | 45 | 1016.9 |
| 20260502180800 | 54 | 349 | 5.0 | 6.0 | 0.00 | 0.00 | 0.00 | 45 | 1016.9 |
| 20260502180700 | 54 | 15 | 4.0 | 4.0 | 0.00 | 0.00 | 0.00 | 47 | 1017.0 |
| 20260502180600 | 54 | 322 | 0.0 | 10.0 | 0.00 | 0.00 | 0.00 | 46 | 1016.9 |
| 20260502180500 | 54 | 298 | 1.0 | 10.0 | 0.00 | 0.00 | 0.00 | 46 | 1016.9 |
| 20260502180401 | 54 | 323 | 2.0 | 10.0 | 0.00 | 0.00 | 0.00 | 46 | 1016.9 |
| 20260502180300 | 54 | 282 | 0.0 | 10.0 | 0.00 | 0.00 | 0.00 | 46 | 1016.9 |
| 20260502170501 | 56 | 350 | 4.0 | 6.0 | 0.00 | 0.00 | 0.00 | 48 | 1017.2 |
| 20260502170400 | 56 | 103 | 1.0 | 6.0 | 0.00 | 0.00 | 0.00 | 50 | 1017.3 |
| 20260502170300 | 56 | 321 | 2.0 | 6.0 | 0.00 | 0.00 | 0.00 | 49 | 1017.2 |
| 20260502164300 | 55 | 313 | 4.0 | 8.0 | 0.00 | 0.00 | 0.00 | 45 | 1017.4 |
| 20260502164159 | 55 | 336 | 2.0 | 8.0 | 0.00 | 0.00 | 0.00 | 47 | 1017.4 |
| 20260502164001 | 56 | 37 | 1.0 | 12.0 | 0.00 | 0.00 | 0.00 | 45 | 1017.5 |
| 20260502163901 | 56 | 15 | 2.0 | 12.0 | 0.00 | 0.00 | 0.00 | 46 | 1017.5 |
| 20260502163800 | 56 | 355 | 4.0 | 12.0 | 0.00 | 0.00 | 0.00 | 47 | 1017.5 |
| 20260502163700 | 56 | 27 | 4.0 | 12.0 | 0.00 | 0.00 | 0.00 | 49 | 1017.5 |
| 20260502163600 | 56 | 355 | 4.0 | 12.0 | 0.00 | 0.00 | 0.00 | 50 | 1017.4 |
| 20260502163502 | 55 | 19 | 2.0 | 12.0 | 0.00 | 0.00 | 0.00 | 50 | 1017.5 |
| 20260502163400 | 55 | 24 | 1.0 | 12.0 | 0.00 | 0.00 | 0.00 | 49 | 1017.5 |
| 20260502163301 | 55 | 68 | 1.0 | 12.0 | 0.00 | 0.00 | 0.00 | 47 | 1017.5 |
| 20260502163159 | 55 | 301 | 3.0 | 12.0 | 0.00 | 0.00 | 0.00 | 49 | 1017.5 |
| 20260502163059 | 55 | 261 | 0.0 | 8.0 | 0.00 | 0.00 | 0.00 | 47 | 1017.6 |
| 20260502163001 | 55 | 312 | 1.0 | 6.0 | 0.00 | 0.00 | 0.00 | 50 | 1017.5 |
| 20260502162900 | 55 | 350 | 2.0 | 6.0 | 0.00 | 0.00 | 0.00 | 51 | 1017.6 |
| 20260502162800 | 55 | 323 | 3.0 | 7.0 | 0.00 | 0.00 | 0.00 | 49 | 1017.6 |
| 20260502162700 | 55 | 15 | 4.0 | 5.0 | 0.00 | 0.00 | 0.00 | 49 | 1017.6 |
| 20260502162559 | 55 | 347 | 2.0 | 5.0 | 0.00 | 0.00 | 0.00 | 50 | 1017.7 |
| 20260502162459 | 55 | 252 | 1.0 | 5.0 | 0.00 | 0.00 | 0.00 | 50 | 1017.6 |
| 20260502162401 | 54 | 5 | 2.0 | 5.0 | 0.00 | 0.00 | 0.00 | 49 | 1017.6 |
| 20260502162304 | 54 | 342 | 1.0 | 4.0 | 0.00 | 0.00 | 0.00 | 50 | 1017.6 |
| 20260502162159 | 54 | 311 | 4.0 | 4.0 | 0.00 | 0.00 | 0.00 | 51 | 1017.6 |
| 20260502162100 | 54 | 325 | 1.0 | 4.0 | 0.00 | 0.00 | 0.00 | 47 | 1017.7 |
| 20260502162001 | 54 | 51 | 1.0 | 4.0 | 0.00 | 0.00 | 0.00 | 50 | 1017.7 |
| 20260502161759 | 54 | 242 | 2.0 | 4.0 | 0.00 | 0.00 | 0.00 | 54 | 1017.7 |
| 20260502161659 | 54 | 51 | 0.0 | 4.0 | 0.00 | 0.00 | 0.00 | 52 | 1017.7 |
| 20260502161600 | 54 | 355 | 0.0 | 6.0 | 0.00 | 0.00 | 0.00 | 53 | 1017.7 |
| 20260502161500 | 54 | 5 | 2.0 | 6.0 | 0.00 | 0.00 | 0.00 | 50 | 1017.7 |
| 20260502161259 | 54 | 197 | 2.0 | 6.0 | 0.00 | 0.00 | 0.00 | 54 | 1017.7 |
| 20260502161159 | 54 | 284 | 1.0 | 9.0 | 0.00 | 0.00 | 0.00 | 54 | 1017.7 |
| 20260502161059 | 53 | 307 | 0.0 | 9.0 | 0.00 | 0.00 | 0.00 | 53 | 1017.7 |
| 20260502160959 | 53 | 101 | 1.0 | 9.0 | 0.00 | 0.00 | 0.00 | 52 | 1017.7 |
| 20260502160859 | 53 | 339 | 0.0 | 9.0 | 0.00 | 0.00 | 0.00 | 54 | 1017.8 |
| 20260502160759 | 53 | 338 | 2.0 | 9.0 | 0.00 | 0.00 | 0.00 | 53 | 1017.8 |
| 20260502160659 | 53 | 333 | 3.0 | 9.0 | 0.00 | 0.00 | 0.00 | 55 | 1017.7 |
| 20260502160458 | 53 | 321 | 2.0 | 9.0 | 0.00 | 0.00 | 0.00 | 52 | 1017.7 |
| 20260502160259 | 53 | 355 | 2.0 | 9.0 | 0.00 | 0.00 | 0.00 | 51 | 1017.8 |
| 20260502160159 | 53 | 5 | 2.0 | 9.0 | 0.00 | 0.00 | 0.00 | 52 | 1017.8 |
| 20260502152301 | 51 | 49 | 1.0 | 4.0 | 0.00 | 0.00 | 0.00 | 55 | 1018.1 |
| 20260502152200 | 51 | 33 | 2.0 | 8.0 | 0.00 | 0.00 | 0.00 | 57 | 1018.1 |
| 20260502152101 | 51 | 333 | 2.0 | 8.0 | 0.00 | 0.00 | 0.00 | 55 | 1018.2 |
| 20260502152002 | 51 | 10 | 1.0 | 8.0 | 0.00 | 0.00 | 0.00 | 54 | 1018.2 |
| 20260502151901 | 51 | 360 | 1.0 | 8.0 | 0.00 | 0.00 | 0.00 | 56 | 1018.2 |
| 20260502151701 | 50 | 338 | 1.0 | 8.0 | 0.00 | 0.00 | 0.00 | 55 | 1018.2 |
| 20260502151602 | 50 | 344 | 2.0 | 8.0 | 0.00 | 0.00 | 0.00 | 54 | 1018.2 |
| 20260502151501 | 50 | 348 | 1.0 | 8.0 | 0.00 | 0.00 | 0.00 | 56 | 1018.1 |
| 20260502151401 | 50 | 28 | 4.0 | 8.0 | 0.00 | 0.00 | 0.00 | 54 | 1018.0 |
| 20260502151300 | 50 | 296 | 0.0 | 8.0 | 0.00 | 0.00 | 0.00 | 56 | 1018.1 |
| 20260502151100 | 49 | 350 | 4.0 | 8.0 | 0.00 | 0.00 | 0.00 | 55 | 1018.0 |
| 20260502151000 | 49 | 25 | 3.0 | 8.0 | 0.00 | 0.00 | 0.00 | 55 | 1018.0 |
| 20260502150900 | 49 | 5 | 2.0 | 5.0 | 0.00 | 0.00 | 0.00 | 54 | 1017.9 |
| 20260502150800 | 49 | 94 | 1.0 | 9.0 | 0.00 | 0.00 | 0.00 | 52 | 1017.9 |
| 20260502150701 | 49 | 81 | 1.0 | 10.0 | 0.00 | 0.00 | 0.00 | 51 | 1017.9 |
| 20260502150600 | 49 | 36 | 1.0 | 10.0 | 0.00 | 0.00 | 0.00 | 52 | 1017.9 |
| 20260502150501 | 49 | 114 | 2.0 | 10.0 | 0.00 | 0.00 | 0.00 | 54 | 1017.9 |
| 20260502150401 | 49 | 344 | 0.0 | 10.0 | 0.00 | 0.00 | 0.00 | 55 | 1018.0 |
| 20260502150301 | 49 | 342 | 2.0 | 10.0 | 0.00 | 0.00 | 0.00 | 54 | 1018.0 |
| 20260502130659 | 46 | 32 | 1.0 | 6.0 | 0.00 | 0.00 | 0.00 | 62 | 1017.9 |
| 20260502130600 | 46 | 24 | 6.0 | 6.0 | 0.00 | 0.00 | 0.00 | 61 | 1017.8 |
| 20260502130459 | 46 | 5 | 0.0 | 5.0 | 0.00 | 0.00 | 0.00 | 61 | 1017.8 |
| 20260502130400 | 46 | 5 | 0.0 | 5.0 | 0.00 | 0.00 | 0.00 | 62 | 1017.8 |
| 20260502130259 | 46 | 360 | 5.0 | 5.0 | 0.00 | 0.00 | 0.00 | 62 | 1017.9 |
| 20260502123801 | 44 | 18 | 3.0 | 8.0 | 0.00 | 0.00 | 0.00 | 62 | 1017.8 |
| 20260502123659 | 44 | 345 | 4.0 | 5.0 | 0.00 | 0.00 | 0.00 | 62 | 1017.8 |
| 20260502123459 | 44 | 10 | 3.0 | 5.0 | 0.00 | 0.00 | 0.00 | 62 | 1017.8 |
| 20260502123400 | 44 | 5 | 1.0 | 5.0 | 0.00 | 0.00 | 0.00 | 62 | 1017.8 |
| 20260502123200 | 44 | 5 | 4.0 | 5.0 | 0.00 | 0.00 | 0.00 | 63 | 1017.8 |
| 20260502123101 | 44 | 325 | 0.0 | 5.0 | 0.00 | 0.00 | 0.00 | 64 | 1017.7 |
| 20260502123001 | 44 | 14 | 2.0 | 6.0 | 0.00 | 0.00 | 0.00 | 64 | 1017.7 |
| 20260502122901 | 44 | 348 | 2.0 | 6.0 | 0.00 | 0.00 | 0.00 | 64 | 1017.8 |
| 20260502122759 | 43 | 9 | 0.0 | 6.0 | 0.00 | 0.00 | 0.00 | 64 | 1017.7 |
| 20260502122702 | 43 | 11 | 5.0 | 8.0 | 0.00 | 0.00 | 0.00 | 63 | 1017.7 |
| 20260502122559 | 43 | 346 | 2.0 | 8.0 | 0.00 | 0.00 | 0.00 | 64 | 1017.7 |
| 20260502122400 | 43 | 344 | 1.0 | 8.0 | 0.00 | 0.00 | 0.00 | 63 | 1017.7 |
| 20260502122300 | 43 | 360 | 3.0 | 8.0 | 0.00 | 0.00 | 0.00 | 63 | 1017.7 |
| 20260502122159 | 43 | 346 | 2.0 | 8.0 | 0.00 | 0.00 | 0.00 | 64 | 1017.7 |
| 20260502122101 | 43 | 5 | 2.0 | 8.0 | 0.00 | 0.00 | 0.00 | 64 | 1017.7 |
| 20260502121959 | 43 | 350 | 3.0 | 8.0 | 0.00 | 0.00 | 0.00 | 64 | 1017.7 |
| 20260502121901 | 43 | 325 | 2.0 | 8.0 | 0.00 | 0.00 | 0.00 | 64 | 1017.6 |
| 20260502121802 | 43 | 355 | 4.0 | 6.0 | 0.00 | 0.00 | 0.00 | 64 | 1017.6 |
| 20260502121500 | 43 | 26 | 3.0 | 6.0 | 0.00 | 0.00 | 0.00 | 65 | 1017.5 |
| 20260502121400 | 43 | 317 | 2.0 | 6.0 | 0.00 | 0.00 | 0.00 | 66 | 1017.5 |
| 20260502121300 | 42 | 22 | 2.0 | 6.0 | 0.00 | 0.00 | 0.00 | 67 | 1017.5 |
| 20260502121100 | 42 | 21 | 3.0 | 6.0 | 0.00 | 0.00 | 0.00 | 68 | 1017.5 |
| 20260502121001 | 42 | 14 | 1.0 | 6.0 | 0.00 | 0.00 | 0.00 | 68 | 1017.6 |
| 20260502120900 | 42 | 23 | 3.0 | 6.0 | 0.00 | 0.00 | 0.00 | 69 | 1017.6 |
| 20260502120700 | 41 | 351 | 1.0 | 5.0 | 0.00 | 0.00 | 0.00 | 70 | 1017.4 |
| 20260502120601 | 41 | 23 | 3.0 | 5.0 | 0.00 | 0.00 | 0.00 | 70 | 1017.4 |
| 20260502120501 | 41 | 16 | 2.0 | 5.0 | 0.00 | 0.00 | 0.00 | 71 | 1017.5 |
| 20260502120359 | 41 | 351 | 4.0 | 5.0 | 0.00 | 0.00 | 0.00 | 72 | 1017.4 |
| 20260502120300 | 40 | 350 | 2.0 | 5.0 | 0.00 | 0.00 | 0.00 | 72 | 1017.5 |
| 20260502115900 | 40 | 18 | 2.0 | 5.0 | 0.00 | 0.00 | 0.00 | 74 | 1017.4 |
| 20260502115759 | 40 | 355 | 4.0 | 5.0 | 0.00 | 0.00 | 0.00 | 75 | 1017.3 |
| 20260502115700 | 40 | 355 | 1.0 | 5.0 | 0.00 | 0.00 | 0.00 | 76 | 1017.3 |
| 20260502115600 | 40 | 5 | 2.0 | 5.0 | 0.00 | 0.00 | 0.00 | 77 | 1017.3 |
| 20260502115500 | 40 | 33 | 1.0 | 5.0 | 0.00 | 0.00 | 0.00 | 78 | 1017.3 |
| 20260502115401 | 39 | 22 | 3.0 | 5.0 | 0.00 | 0.00 | 0.00 | 79 | 1017.3 |
| 20260502115301 | 39 | 348 | 0.0 | 4.0 | 0.00 | 0.00 | 0.00 | 80 | 1017.2 |
| 20260502115200 | 39 | 344 | 0.0 | 4.0 | 0.00 | 0.00 | 0.00 | 80 | 1017.1 |
| 20260502114759 | 39 | 19 | 3.0 | 3.0 | 0.00 | 0.00 | 0.00 | 86 | 1017.2 |
| 20260502114701 | 39 | 13 | 0.0 | 0.0 | 0.00 | 0.00 | 0.00 | 86 | 1017.3 |
| 20260502114501 | 38 | 13 | 0.0 | 0.0 | 0.00 | 0.00 | 0.00 | 88 | 1017.3 |
| 20260502114259 | 38 | 13 | 0.0 | 0.0 | 0.00 | 0.00 | 0.00 | 89 | 1017.2 |
| 20260502114200 | 38 | 13 | 0.0 | 0.0 | 0.00 | 0.00 | 0.00 | 89 | 1017.3 |
| 20260502114102 | 37 | 13 | 0.0 | 0.0 | 0.00 | 0.00 | 0.00 | 89 | 1017.2 |
| 20260502114000 | 37 | 13 | 0.0 | 0.0 | 0.00 | 0.00 | 0.00 | 89 | 1017.2 |
| 20260502113859 | 37 | 13 | 0.0 | 0.0 | 0.00 | 0.00 | 0.00 | 89 | 1017.1 |
| 20260502113759 | 37 | 13 | 0.0 | 0.0 | 0.00 | 0.00 | 0.00 | 89 | 1017.2 |
| 20260502113702 | 36 | 13 | 0.0 | 0.0 | 0.00 | 0.00 | 0.00 | 89 | 1017.2 |
| 20260502113600 | 36 | 13 | 0.0 | 0.0 | 0.00 | 0.00 | 0.00 | 89 | 1017.1 |
| 20260502113400 | 36 | 13 | 0.0 | 0.0 | 0.00 | 0.00 | 0.00 | 89 | 1017.1 |
| 20260502113259 | 36 | 13 | 0.0 | 0.0 | 0.00 | 0.00 | 0.00 | 88 | 1017.1 |
| 20260502113159 | 36 | 13 | 0.0 | 0.0 | 0.00 | 0.00 | 0.00 | 88 | 1017.1 |
| 20260502113100 | 36 | 13 | 0.0 | 0.0 | 0.00 | 0.00 | 0.00 | 88 | 1017.1 |
| 20260502113001 | 35 | 13 | 0.0 | 0.0 | 0.00 | 0.00 | 0.00 | 88 | 1017.1 |
| 20260502112900 | 35 | 13 | 0.0 | 0.0 | 0.00 | 0.00 | 0.00 | 88 | 1017.0 |
| 20260502112759 | 35 | 13 | 0.0 | 0.0 | 0.00 | 0.00 | 0.00 | 88 | 1017.1 |
| 20260502112603 | 35 | 13 | 0.0 | 0.0 | 0.00 | 0.00 | 0.00 | 88 | 1017.1 |
| 20260502112501 | 35 | 13 | 0.0 | 0.0 | 0.00 | 0.00 | 0.00 | 87 | 1017.0 |
| 20260502112359 | 35 | 13 | 0.0 | 0.0 | 0.00 | 0.00 | 0.00 | 87 | 1017.0 |
| 20260502112001 | 35 | 13 | 0.0 | 0.0 | 0.00 | 0.00 | 0.00 | 87 | 1016.9 |
| 20260502111900 | 35 | 13 | 0.0 | 0.0 | 0.00 | 0.00 | 0.00 | 87 | 1016.9 |
| 20260502111800 | 35 | 13 | 0.0 | 0.0 | 0.00 | 0.00 | 0.00 | 87 | 1016.9 |
| 20260502111702 | 35 | 13 | 0.0 | 0.0 | 0.00 | 0.00 | 0.00 | 87 | 1016.8 |
| 20260502111559 | 35 | 13 | 0.0 | 0.0 | 0.00 | 0.00 | 0.00 | 86 | 1016.9 |
| 20260502111500 | 34 | 13 | 0.0 | 0.0 | 0.00 | 0.00 | 0.00 | 86 | 1016.8 |
| 20260502111359 | 34 | 13 | 0.0 | 0.0 | 0.00 | 0.00 | 0.00 | 86 | 1016.8 |
| 20260502111301 | 34 | 13 | 0.0 | 0.0 | 0.00 | 0.00 | 0.00 | 86 | 1016.8 |
| 20260502111159 | 34 | 13 | 0.0 | 0.0 | 0.00 | 0.00 | 0.00 | 86 | 1016.8 |
| 20260502111101 | 34 | 13 | 0.0 | 0.0 | 0.00 | 0.00 | 0.00 | 86 | 1016.7 |
| 20260502110959 | 34 | 13 | 0.0 | 0.0 | 0.00 | 0.00 | 0.00 | 86 | 1016.7 |
| 20260502110901 | 34 | 13 | 0.0 | 0.0 | 0.00 | 0.00 | 0.00 | 86 | 1016.6 |
| 20260502110759 | 34 | 13 | 0.0 | 0.0 | 0.00 | 0.00 | 0.00 | 86 | 1016.7 |
| 20260502110659 | 34 | 13 | 0.0 | 0.0 | 0.00 | 0.00 | 0.00 | 85 | 1016.7 |
| 20260502110600 | 34 | 13 | 0.0 | 0.0 | 0.00 | 0.00 | 0.00 | 85 | 1016.8 |
| 20260502110500 | 34 | 13 | 0.0 | 0.0 | 0.00 | 0.00 | 0.00 | 85 | 1016.8 |
| 20260502110359 | 34 | 13 | 0.0 | 0.0 | 0.00 | 0.00 | 0.00 | 85 | 1016.8 |
| 20260502110302 | 34 | 13 | 0.0 | 0.0 | 0.00 | 0.00 | 0.00 | 85 | 1016.8 |
| 20260502110200 | 34 | 13 | 0.0 | 0.0 | 0.00 | 0.00 | 0.00 | 85 | 1016.8 |
| 20260502110101 | 34 | 13 | 0.0 | 0.0 | 0.00 | 0.00 | 0.00 | 85 | 1016.8 |
| 20260502110001 | 34 | 13 | 0.0 | 0.0 | 0.00 | 0.00 | 0.00 | 86 | 1016.8 |
| 20260502105901 | 35 | 13 | 0.0 | 0.0 | 0.00 | 0.00 | 0.00 | 86 | 1016.8 |
| 20260502105800 | 34 | 13 | 0.0 | 0.0 | 0.00 | 0.00 | 0.00 | 86 | 1016.8 |
| 20260502105701 | 34 | 13 | 0.0 | 0.0 | 0.00 | 0.00 | 0.00 | 86 | 1016.9 |
| 20260502105600 | 35 | 13 | 0.0 | 0.0 | 0.00 | 0.00 | 0.00 | 86 | 1016.9 |
| 20260502105501 | 35 | 13 | 0.0 | 0.0 | 0.00 | 0.00 | 0.00 | 86 | 1016.9 |
| 20260502105400 | 35 | 13 | 0.0 | 0.0 | 0.00 | 0.00 | 0.00 | 86 | 1017.0 |
| 20260502105159 | 34 | 13 | 0.0 | 0.0 | 0.00 | 0.00 | 0.00 | 85 | 1017.0 |
| 20260502105059 | 34 | 13 | 0.0 | 0.0 | 0.00 | 0.00 | 0.00 | 85 | 1017.0 |
| 20260502105002 | 34 | 13 | 0.0 | 0.0 | 0.00 | 0.00 | 0.00 | 85 | 1017.0 |
| 20260502104859 | 34 | 13 | 0.0 | 0.0 | 0.00 | 0.00 | 0.00 | 84 | 1017.0 |
| 20260502104759 | 34 | 13 | 0.0 | 0.0 | 0.00 | 0.00 | 0.00 | 84 | 1017.0 |
| 20260502104701 | 34 | 13 | 0.0 | 0.0 | 0.00 | 0.00 | 0.00 | 84 | 1017.0 |
| 20260502104559 | 34 | 13 | 0.0 | 0.0 | 0.00 | 0.00 | 0.00 | 84 | 1017.0 |
| 20260502104459 | 34 | 13 | 0.0 | 0.0 | 0.00 | 0.00 | 0.00 | 84 | 1017.0 |
| 20260502104400 | 34 | 13 | 0.0 | 0.0 | 0.00 | 0.00 | 0.00 | 84 | 1017.1 |
| 20260502104300 | 34 | 13 | 0.0 | 0.0 | 0.00 | 0.00 | 0.00 | 83 | 1017.1 |
| 20260502104200 | 34 | 13 | 0.0 | 0.0 | 0.00 | 0.00 | 0.00 | 84 | 1017.1 |
| 20260502104101 | 35 | 13 | 0.0 | 0.0 | 0.00 | 0.00 | 0.00 | 84 | 1017.1 |
| 20260502104000 | 35 | 13 | 0.0 | 0.0 | 0.00 | 0.00 | 0.00 | 83 | 1017.1 |
| 20260502103900 | 35 | 13 | 0.0 | 0.0 | 0.00 | 0.00 | 0.00 | 83 | 1017.1 |
| 20260502103800 | 35 | 13 | 0.0 | 0.0 | 0.00 | 0.00 | 0.00 | 83 | 1017.0 |
| 20260502103601 | 35 | 13 | 0.0 | 0.0 | 0.00 | 0.00 | 0.00 | 83 | 1017.0 |
| 20260502103503 | 35 | 13 | 0.0 | 0.0 | 0.00 | 0.00 | 0.00 | 83 | 1017.0 |
| 20260502103359 | 35 | 13 | 0.0 | 0.0 | 0.00 | 0.00 | 0.00 | 83 | 1017.0 |
| 20260502103300 | 35 | 13 | 0.0 | 0.0 | 0.00 | 0.00 | 0.00 | 83 | 1017.0 |
| 20260502103159 | 35 | 13 | 0.0 | 0.0 | 0.00 | 0.00 | 0.00 | 83 | 1017.1 |
| 20260502102959 | 35 | 13 | 0.0 | 0.0 | 0.00 | 0.00 | 0.00 | 83 | 1017.1 |
| 20260502102858 | 35 | 13 | 0.0 | 0.0 | 0.00 | 0.00 | 0.00 | 83 | 1017.1 |
| 20260502102759 | 35 | 13 | 0.0 | 0.0 | 0.00 | 0.00 | 0.00 | 83 | 1017.1 |
| 20260502102559 | 35 | 13 | 0.0 | 0.0 | 0.00 | 0.00 | 0.00 | 83 | 1017.1 |
| 20260502102458 | 35 | 13 | 0.0 | 0.0 | 0.00 | 0.00 | 0.00 | 83 | 1017.1 |
| 20260502102359 | 35 | 13 | 0.0 | 0.0 | 0.00 | 0.00 | 0.00 | 83 | 1017.1 |
| 20260502102259 | 35 | 13 | 0.0 | 0.0 | 0.00 | 0.00 | 0.00 | 83 | 1017.1 |
| 20260502102058 | 35 | 13 | 0.0 | 0.0 | 0.00 | 0.00 | 0.00 | 82 | 1017.1 |
| 20260502101958 | 35 | 13 | 0.0 | 0.0 | 0.00 | 0.00 | 0.00 | 82 | 1017.1 |
| 20260502101859 | 35 | 13 | 0.0 | 0.0 | 0.00 | 0.00 | 0.00 | 83 | 1017.1 |
| 20260502101759 | 35 | 13 | 0.0 | 0.0 | 0.00 | 0.00 | 0.00 | 83 | 1017.1 |
| 20260502101500 | 35 | 13 | 0.0 | 0.0 | 0.00 | 0.00 | 0.00 | 82 | 1017.0 |
| 20260502101358 | 35 | 13 | 0.0 | 0.0 | 0.00 | 0.00 | 0.00 | 82 | 1017.0 |
| 20260502101300 | 35 | 13 | 0.0 | 0.0 | 0.00 | 0.00 | 0.00 | 82 | 1017.1 |
| 20260502101159 | 35 | 13 | 0.0 | 0.0 | 0.00 | 0.00 | 0.00 | 82 | 1017.0 |
| 20260502100959 | 36 | 13 | 0.0 | 0.0 | 0.00 | 0.00 | 0.00 | 82 | 1017.0 |
| 20260502100859 | 36 | 13 | 0.0 | 0.0 | 0.00 | 0.00 | 0.00 | 82 | 1017.0 |
| 20260502100659 | 36 | 13 | 0.0 | 0.0 | 0.00 | 0.00 | 0.00 | 82 | 1017.0 |
| 20260502100558 | 36 | 13 | 0.0 | 0.0 | 0.00 | 0.00 | 0.00 | 82 | 1017.0 |
| 20260502100458 | 36 | 13 | 0.0 | 0.0 | 0.00 | 0.00 | 0.00 | 81 | 1017.1 |
| 20260502100401 | 36 | 13 | 0.0 | 0.0 | 0.00 | 0.00 | 0.00 | 81 | 1017.0 |
| 20260502100259 | 36 | 13 | 0.0 | 0.0 | 0.00 | 0.00 | 0.00 | 81 | 1017.1 |
| 20260502100158 | 36 | 13 | 0.0 | 0.0 | 0.00 | 0.00 | 0.00 | 81 | 1017.1 |
| 20260502091500 | 38 | 13 | 0.0 | 0.0 | 0.00 | 0.00 | 0.00 | 78 | 1017.0 |
| 20260502091301 | 38 | 13 | 0.0 | 0.0 | 0.00 | 0.00 | 0.00 | 78 | 1016.9 |
| 20260502091201 | 38 | 13 | 0.0 | 0.0 | 0.00 | 0.00 | 0.00 | 78 | 1017.0 |
| 20260502091000 | 38 | 13 | 0.0 | 0.0 | 0.00 | 0.00 | 0.00 | 78 | 1016.9 |
| 20260502090859 | 38 | 13 | 0.0 | 0.0 | 0.00 | 0.00 | 0.00 | 78 | 1017.1 |
| 20260502090700 | 38 | 13 | 0.0 | 0.0 | 0.00 | 0.00 | 0.00 | 78 | 1017.0 |
| 20260502090600 | 38 | 13 | 0.0 | 0.0 | 0.00 | 0.00 | 0.00 | 77 | 1017.0 |
| 20260502090500 | 38 | 13 | 0.0 | 0.0 | 0.00 | 0.00 | 0.00 | 77 | 1017.0 |
| 20260502090359 | 38 | 13 | 0.0 | 0.0 | 0.00 | 0.00 | 0.00 | 77 | 1017.0 |
| 20260502090300 | 38 | 13 | 0.0 | 0.0 | 0.00 | 0.00 | 0.00 | 76 | 1017.0 |
| 20260502090159 | 38 | 13 | 0.0 | 0.0 | 0.00 | 0.00 | 0.00 | 75 | 1017.0 |
| 20260502071401 | 40 | 15 | 0.0 | 3.0 | 0.00 | 0.00 | 0.00 | 75 | 1016.8 |
| 20260502071259 | 40 | 15 | 0.0 | 4.0 | 0.00 | 0.00 | 0.00 | 75 | 1016.7 |
| 20260502071159 | 40 | 14 | 1.0 | 4.0 | 0.00 | 0.00 | 0.00 | 76 | 1016.8 |
| 20260502071101 | 40 | 11 | 0.0 | 4.0 | 0.00 | 0.00 | 0.00 | 76 | 1016.8 |
| 20260502071000 | 40 | 19 | 0.0 | 4.0 | 0.00 | 0.00 | 0.00 | 76 | 1016.7 |
| 20260502070658 | 40 | 5 | 0.0 | 4.0 | 0.00 | 0.00 | 0.00 | 77 | 1016.8 |
| 20260502070600 | 40 | 5 | 2.0 | 4.0 | 0.00 | 0.00 | 0.00 | 77 | 1016.8 |
| 20260502070500 | 40 | 348 | 1.0 | 4.0 | 0.00 | 0.00 | 0.00 | 77 | 1016.6 |
| 20260502070359 | 39 | 5 | 3.0 | 4.0 | 0.00 | 0.00 | 0.00 | 78 | 1016.7 |
| 20260502070259 | 39 | 17 | 0.0 | 4.0 | 0.00 | 0.00 | 0.00 | 79 | 1016.7 |
| 20260502070200 | 39 | 15 | 1.0 | 4.0 | 0.00 | 0.00 | 0.00 | 79 | 1016.7 |
| 20260502070001 | 39 | 11 | 1.0 | 3.0 | 0.00 | 0.00 | 0.00 | 80 | 1016.7 |
| 20260502065759 | 39 | 22 | 0.0 | 0.0 | 0.00 | 0.00 | 0.00 | 81 | 1016.7 |
| 20260502065558 | 38 | 5 | 0.0 | 0.0 | 0.00 | 0.00 | 0.00 | 82 | 1016.7 |
| 20260502065500 | 38 | 20 | 0.0 | 0.0 | 0.00 | 0.00 | 0.00 | 83 | 1016.6 |
| 20260502065400 | 38 | 23 | 0.0 | 0.0 | 0.00 | 0.00 | 0.00 | 83 | 1016.6 |
| 20260502065258 | 38 | 23 | 0.0 | 0.0 | 0.00 | 0.00 | 0.00 | 84 | 1016.7 |
| 20260502065159 | 38 | 5 | 0.0 | 0.0 | 0.00 | 0.00 | 0.00 | 84 | 1016.6 |
| 20260502065058 | 38 | 5 | 0.0 | 0.0 | 0.00 | 0.00 | 0.00 | 84 | 1016.7 |
| 20260502064959 | 38 | 5 | 0.0 | 0.0 | 0.00 | 0.00 | 0.00 | 84 | 1016.6 |
| 20260502064859 | 38 | 5 | 0.0 | 0.0 | 0.00 | 0.00 | 0.00 | 85 | 1016.7 |
| 20260502064759 | 38 | 355 | 0.0 | 0.0 | 0.00 | 0.00 | 0.00 | 85 | 1016.8 |
| 20260502064559 | 37 | 355 | 0.0 | 0.0 | 0.00 | 0.00 | 0.00 | 85 | 1016.8 |
| 20260502064459 | 37 | 355 | 0.0 | 0.0 | 0.00 | 0.00 | 0.00 | 85 | 1016.8 |
| 20260502064359 | 37 | 355 | 0.0 | 0.0 | 0.00 | 0.00 | 0.00 | 85 | 1016.7 |
| 20260502064300 | 37 | 355 | 0.0 | 0.0 | 0.00 | 0.00 | 0.00 | 85 | 1016.8 |
| 20260502064059 | 37 | 355 | 0.0 | 0.0 | 0.00 | 0.00 | 0.00 | 85 | 1016.8 |
| 20260502064000 | 37 | 355 | 0.0 | 0.0 | 0.00 | 0.00 | 0.00 | 85 | 1016.8 |
| 20260502063859 | 37 | 355 | 0.0 | 0.0 | 0.00 | 0.00 | 0.00 | 85 | 1016.8 |
| 20260502063559 | 37 | 355 | 0.0 | 0.0 | 0.00 | 0.00 | 0.00 | 85 | 1016.9 |
| 20260502063501 | 37 | 355 | 0.0 | 0.0 | 0.00 | 0.00 | 0.00 | 85 | 1016.9 |
| 20260502063400 | 37 | 355 | 0.0 | 0.0 | 0.00 | 0.00 | 0.00 | 84 | 1017.0 |
| 20260502063159 | 37 | 355 | 0.0 | 0.0 | 0.00 | 0.00 | 0.00 | 85 | 1017.0 |
| 20260502063100 | 37 | 355 | 0.0 | 0.0 | 0.00 | 0.00 | 0.00 | 85 | 1017.0 |
| 20260502062959 | 37 | 355 | 0.0 | 0.0 | 0.00 | 0.00 | 0.00 | 84 | 1017.1 |
| 20260502062900 | 37 | 355 | 0.0 | 0.0 | 0.00 | 0.00 | 0.00 | 85 | 1017.1 |
| 20260502062759 | 37 | 355 | 0.0 | 0.0 | 0.00 | 0.00 | 0.00 | 84 | 1017.1 |
| 20260502062659 | 37 | 355 | 0.0 | 0.0 | 0.00 | 0.00 | 0.00 | 84 | 1017.1 |
| 20260502062558 | 37 | 355 | 0.0 | 0.0 | 0.00 | 0.00 | 0.00 | 84 | 1017.1 |
| 20260502062459 | 37 | 355 | 0.0 | 0.0 | 0.00 | 0.00 | 0.00 | 84 | 1017.0 |
| 20260502062359 | 37 | 355 | 0.0 | 0.0 | 0.00 | 0.00 | 0.00 | 84 | 1017.1 |
| 20260502062301 | 37 | 355 | 0.0 | 0.0 | 0.00 | 0.00 | 0.00 | 84 | 1017.0 |
| 20260502061959 | 37 | 355 | 0.0 | 0.0 | 0.00 | 0.00 | 0.00 | 84 | 1017.3 |
| 20260502061859 | 38 | 355 | 0.0 | 0.0 | 0.00 | 0.00 | 0.00 | 84 | 1017.3 |
| 20260502061759 | 37 | 355 | 0.0 | 0.0 | 0.00 | 0.00 | 0.00 | 84 | 1017.3 |
| 20260502061659 | 38 | 355 | 0.0 | 0.0 | 0.00 | 0.00 | 0.00 | 84 | 1017.4 |
| 20260502061359 | 38 | 355 | 0.0 | 0.0 | 0.00 | 0.00 | 0.00 | 84 | 1017.4 |
| 20260502061159 | 38 | 355 | 0.0 | 0.0 | 0.00 | 0.00 | 0.00 | 84 | 1017.4 |
| 20260502061101 | 38 | 355 | 0.0 | 0.0 | 0.00 | 0.00 | 0.00 | 84 | 1017.4 |
| 20260502060859 | 38 | 355 | 0.0 | 0.0 | 0.00 | 0.00 | 0.00 | 84 | 1017.3 |
| 20260502060800 | 38 | 355 | 0.0 | 0.0 | 0.00 | 0.00 | 0.00 | 84 | 1017.4 |
| 20260502060659 | 38 | 355 | 0.0 | 0.0 | 0.00 | 0.00 | 0.00 | 84 | 1017.4 |
| 20260502060601 | 38 | 355 | 0.0 | 0.0 | 0.00 | 0.00 | 0.00 | 84 | 1017.5 |
| 20260502060500 | 38 | 355 | 0.0 | 0.0 | 0.00 | 0.00 | 0.00 | 84 | 1017.4 |
| 20260502060358 | 38 | 355 | 0.0 | 0.0 | 0.00 | 0.00 | 0.00 | 84 | 1017.4 |
| 20260502060259 | 38 | 355 | 0.0 | 0.0 | 0.00 | 0.00 | 0.00 | 84 | 1017.4 |
| 20260502060159 | 38 | 355 | 0.0 | 0.0 | 0.00 | 0.00 | 0.00 | 84 | 1017.4 |
| 20260502060100 | 38 | 355 | 0.0 | 0.0 | 0.00 | 0.00 | 0.00 | 84 | 1017.5 |
| 20260502055959 | 38 | 355 | 0.0 | 0.0 | 0.00 | 0.00 | 0.00 | 84 | 1017.4 |
| 20260502055859 | 38 | 355 | 0.0 | 0.0 | 0.00 | 0.00 | 0.00 | 84 | 1017.5 |
| 20260502055758 | 38 | 355 | 0.0 | 0.0 | 0.00 | 0.00 | 0.00 | 84 | 1017.4 |
| 20260502055659 | 38 | 355 | 0.0 | 0.0 | 0.00 | 0.00 | 0.00 | 84 | 1017.5 |
| 20260502055458 | 38 | 355 | 0.0 | 0.0 | 0.00 | 0.00 | 0.00 | 83 | 1017.5 |
| 20260502055400 | 38 | 355 | 0.0 | 0.0 | 0.00 | 0.00 | 0.00 | 83 | 1017.5 |
| 20260502055259 | 38 | 355 | 0.0 | 0.0 | 0.00 | 0.00 | 0.00 | 83 | 1017.5 |
| 20260502055159 | 38 | 355 | 0.0 | 0.0 | 0.00 | 0.00 | 0.00 | 83 | 1017.5 |
| 20260502055059 | 38 | 355 | 0.0 | 0.0 | 0.00 | 0.00 | 0.00 | 83 | 1017.5 |
| 20260502055000 | 38 | 355 | 0.0 | 0.0 | 0.00 | 0.00 | 0.00 | 83 | 1017.6 |
| 20260502054759 | 38 | 355 | 0.0 | 0.0 | 0.00 | 0.00 | 0.00 | 83 | 1017.6 |
| 20260502054658 | 38 | 355 | 0.0 | 0.0 | 0.00 | 0.00 | 0.00 | 83 | 1017.6 |
| 20260502054458 | 38 | 355 | 0.0 | 0.0 | 0.00 | 0.00 | 0.00 | 83 | 1017.5 |
| 20260502054400 | 38 | 355 | 0.0 | 0.0 | 0.00 | 0.00 | 0.00 | 83 | 1017.5 |
| 20260502054300 | 38 | 355 | 0.0 | 0.0 | 0.00 | 0.00 | 0.00 | 83 | 1017.5 |
| 20260502054059 | 38 | 355 | 0.0 | 0.0 | 0.00 | 0.00 | 0.00 | 83 | 1017.5 |
| 20260502053958 | 38 | 355 | 0.0 | 0.0 | 0.00 | 0.00 | 0.00 | 82 | 1017.5 |
| 20260502053859 | 38 | 355 | 0.0 | 0.0 | 0.00 | 0.00 | 0.00 | 82 | 1017.5 |
| 20260502053459 | 38 | 355 | 0.0 | 0.0 | 0.00 | 0.00 | 0.00 | 82 | 1017.4 |
| 20260502053358 | 38 | 355 | 0.0 | 0.0 | 0.00 | 0.00 | 0.00 | 82 | 1017.5 |
| 20260502053259 | 38 | 355 | 0.0 | 0.0 | 0.00 | 0.00 | 0.00 | 82 | 1017.4 |
| 20260502053200 | 38 | 355 | 0.0 | 0.0 | 0.00 | 0.00 | 0.00 | 82 | 1017.4 |
| 20260502053058 | 38 | 355 | 0.0 | 0.0 | 0.00 | 0.00 | 0.00 | 82 | 1017.4 |
| 20260502052959 | 38 | 355 | 0.0 | 0.0 | 0.00 | 0.00 | 0.00 | 82 | 1017.4 |
| 20260502052859 | 38 | 355 | 0.0 | 0.0 | 0.00 | 0.00 | 0.00 | 82 | 1017.4 |
| 20260502052758 | 38 | 355 | 0.0 | 0.0 | 0.00 | 0.00 | 0.00 | 82 | 1017.4 |
| 20260502052658 | 38 | 355 | 0.0 | 0.0 | 0.00 | 0.00 | 0.00 | 82 | 1017.4 |
| 20260502052559 | 38 | 355 | 0.0 | 0.0 | 0.00 | 0.00 | 0.00 | 82 | 1017.4 |
| 20260502052459 | 38 | 355 | 0.0 | 0.0 | 0.00 | 0.00 | 0.00 | 82 | 1017.4 |
| 20260502052359 | 38 | 355 | 0.0 | 0.0 | 0.00 | 0.00 | 0.00 | 82 | 1017.3 |
| 20260502052059 | 38 | 355 | 0.0 | 0.0 | 0.00 | 0.00 | 0.00 | 82 | 1017.4 |
| 20260502051959 | 38 | 355 | 0.0 | 0.0 | 0.00 | 0.00 | 0.00 | 82 | 1017.3 |
| 20260502051858 | 38 | 355 | 0.0 | 0.0 | 0.00 | 0.00 | 0.00 | 82 | 1017.3 |
| 20260502051758 | 39 | 355 | 0.0 | 0.0 | 0.00 | 0.00 | 0.00 | 82 | 1017.3 |
| 20260502051659 | 39 | 355 | 0.0 | 0.0 | 0.00 | 0.00 | 0.00 | 82 | 1017.3 |
| 20260502051558 | 39 | 355 | 0.0 | 0.0 | 0.00 | 0.00 | 0.00 | 82 | 1017.3 |
| 20260502051359 | 39 | 355 | 0.0 | 0.0 | 0.00 | 0.00 | 0.00 | 82 | 1017.3 |
| 20260502051258 | 39 | 355 | 0.0 | 0.0 | 0.00 | 0.00 | 0.00 | 82 | 1017.3 |
| 20260502051100 | 39 | 355 | 0.0 | 0.0 | 0.00 | 0.00 | 0.00 | 82 | 1017.3 |
| 20260502050959 | 39 | 355 | 0.0 | 0.0 | 0.00 | 0.00 | 0.00 | 81 | 1017.3 |
| 20260502050859 | 39 | 355 | 0.0 | 0.0 | 0.00 | 0.00 | 0.00 | 81 | 1017.3 |
| 20260502050758 | 39 | 355 | 0.0 | 0.0 | 0.00 | 0.00 | 0.00 | 81 | 1017.4 |
| 20260502050658 | 39 | 355 | 0.0 | 0.0 | 0.00 | 0.00 | 0.00 | 81 | 1017.4 |
| 20260502050558 | 39 | 355 | 0.0 | 0.0 | 0.00 | 0.00 | 0.00 | 81 | 1017.4 |
| 20260502050459 | 39 | 355 | 0.0 | 0.0 | 0.00 | 0.00 | 0.00 | 81 | 1017.4 |
| 20260502050401 | 39 | 355 | 0.0 | 0.0 | 0.00 | 0.00 | 0.00 | 81 | 1017.4 |
| 20260502050259 | 39 | 355 | 0.0 | 0.0 | 0.00 | 0.00 | 0.00 | 81 | 1017.4 |
| 20260502050201 | 39 | 355 | 0.0 | 0.0 | 0.00 | 0.00 | 0.00 | 81 | 1017.3 |
| 20260502050058 | 39 | 355 | 0.0 | 0.0 | 0.00 | 0.00 | 0.00 | 81 | 1017.4 |
| 20260502045959 | 39 | 355 | 0.0 | 0.0 | 0.00 | 0.00 | 0.00 | 81 | 1017.4 |
| 20260502045859 | 39 | 355 | 0.0 | 0.0 | 0.00 | 0.00 | 0.00 | 80 | 1017.3 |
| 20260502045659 | 39 | 355 | 0.0 | 0.0 | 0.00 | 0.00 | 0.00 | 80 | 1017.4 |
| 20260502045558 | 39 | 355 | 0.0 | 0.0 | 0.00 | 0.00 | 0.00 | 80 | 1017.4 |
| 20260502045500 | 39 | 355 | 0.0 | 0.0 | 0.00 | 0.00 | 0.00 | 80 | 1017.5 |
| 20260502045200 | 39 | 355 | 0.0 | 0.0 | 0.00 | 0.00 | 0.00 | 80 | 1017.4 |
| 20260502045058 | 39 | 355 | 0.0 | 0.0 | 0.00 | 0.00 | 0.00 | 80 | 1017.4 |
| 20260502045000 | 39 | 355 | 0.0 | 0.0 | 0.00 | 0.00 | 0.00 | 80 | 1017.4 |
| 20260502044659 | 39 | 355 | 0.0 | 0.0 | 0.00 | 0.00 | 0.00 | 80 | 1017.4 |
| 20260502044558 | 39 | 355 | 0.0 | 0.0 | 0.00 | 0.00 | 0.00 | 80 | 1017.4 |
| 20260502044400 | 39 | 355 | 0.0 | 0.0 | 0.00 | 0.00 | 0.00 | 80 | 1017.4 |
| 20260502044258 | 40 | 355 | 0.0 | 0.0 | 0.00 | 0.00 | 0.00 | 79 | 1017.4 |
| 20260502044200 | 40 | 355 | 0.0 | 0.0 | 0.00 | 0.00 | 0.00 | 80 | 1017.4 |
| 20260502044058 | 40 | 355 | 0.0 | 0.0 | 0.00 | 0.00 | 0.00 | 80 | 1017.5 |
| 20260502043958 | 40 | 355 | 0.0 | 0.0 | 0.00 | 0.00 | 0.00 | 79 | 1017.4 |
| 20260502043900 | 40 | 355 | 0.0 | 0.0 | 0.00 | 0.00 | 0.00 | 79 | 1017.4 |
| 20260502043759 | 40 | 355 | 0.0 | 0.0 | 0.00 | 0.00 | 0.00 | 79 | 1017.5 |
| 20260502043659 | 40 | 355 | 0.0 | 0.0 | 0.00 | 0.00 | 0.00 | 79 | 1017.4 |
| 20260502043559 | 40 | 355 | 0.0 | 0.0 | 0.00 | 0.00 | 0.00 | 79 | 1017.4 |
| 20260502043459 | 40 | 355 | 0.0 | 0.0 | 0.00 | 0.00 | 0.00 | 79 | 1017.5 |
| 20260502043359 | 40 | 355 | 0.0 | 0.0 | 0.00 | 0.00 | 0.00 | 79 | 1017.5 |
| 20260502043258 | 40 | 355 | 0.0 | 0.0 | 0.00 | 0.00 | 0.00 | 79 | 1017.5 |
| 20260502043200 | 40 | 355 | 0.0 | 0.0 | 0.00 | 0.00 | 0.00 | 79 | 1017.5 |
| 20260502043000 | 40 | 355 | 0.0 | 0.0 | 0.00 | 0.00 | 0.00 | 79 | 1017.5 |
| 20260502042901 | 40 | 355 | 0.0 | 0.0 | 0.00 | 0.00 | 0.00 | 79 | 1017.5 |
| 20260502042802 | 40 | 355 | 0.0 | 0.0 | 0.00 | 0.00 | 0.00 | 78 | 1017.5 |
| 20260502042701 | 40 | 355 | 0.0 | 0.0 | 0.00 | 0.00 | 0.00 | 78 | 1017.4 |
| 20260502042603 | 40 | 355 | 0.0 | 0.0 | 0.00 | 0.00 | 0.00 | 79 | 1017.5 |
| 20260502042401 | 40 | 355 | 0.0 | 0.0 | 0.00 | 0.00 | 0.00 | 79 | 1017.5 |
| 20260502042202 | 40 | 355 | 0.0 | 0.0 | 0.00 | 0.00 | 0.00 | 78 | 1017.5 |
| 20260502042100 | 40 | 355 | 0.0 | 0.0 | 0.00 | 0.00 | 0.00 | 78 | 1017.5 |
| 20260502042000 | 40 | 355 | 0.0 | 0.0 | 0.00 | 0.00 | 0.00 | 78 | 1017.6 |
| 20260502041900 | 40 | 355 | 0.0 | 0.0 | 0.00 | 0.00 | 0.00 | 78 | 1017.6 |
| 20260502041800 | 40 | 355 | 0.0 | 0.0 | 0.00 | 0.00 | 0.00 | 78 | 1017.6 |
| 20260502041702 | 40 | 355 | 0.0 | 0.0 | 0.00 | 0.00 | 0.00 | 78 | 1017.6 |
| 20260502041602 | 40 | 355 | 0.0 | 0.0 | 0.00 | 0.00 | 0.00 | 78 | 1017.6 |
| 20260502041500 | 40 | 355 | 0.0 | 0.0 | 0.00 | 0.00 | 0.00 | 78 | 1017.6 |
| 20260502041401 | 40 | 355 | 0.0 | 0.0 | 0.00 | 0.00 | 0.00 | 78 | 1017.6 |
| 20260502041201 | 40 | 355 | 0.0 | 0.0 | 0.00 | 0.00 | 0.00 | 78 | 1017.6 |
| 20260502041000 | 40 | 355 | 0.0 | 0.0 | 0.00 | 0.00 | 0.00 | 78 | 1017.5 |
| 20260502040900 | 40 | 355 | 0.0 | 0.0 | 0.00 | 0.00 | 0.00 | 78 | 1017.6 |
| 20260502040600 | 40 | 355 | 0.0 | 0.0 | 0.00 | 0.00 | 0.00 | 78 | 1017.5 |
| 20260502040501 | 40 | 355 | 0.0 | 0.0 | 0.00 | 0.00 | 0.00 | 78 | 1017.5 |
| 20260502040401 | 40 | 355 | 0.0 | 0.0 | 0.00 | 0.00 | 0.00 | 78 | 1017.5 |
| 20260502040301 | 40 | 355 | 0.0 | 0.0 | 0.00 | 0.00 | 0.00 | 77 | 1017.5 |
| 20260502040200 | 41 | 355 | 0.0 | 0.0 | 0.00 | 0.00 | 0.00 | 77 | 1017.4 |
| 20260502040100 | 41 | 355 | 0.0 | 0.0 | 0.00 | 0.00 | 0.00 | 77 | 1017.4 |
| 20260502035900 | 41 | 355 | 0.0 | 0.0 | 0.00 | 0.00 | 0.00 | 77 | 1017.4 |
| 20260502035801 | 41 | 355 | 0.0 | 0.0 | 0.00 | 0.00 | 0.00 | 77 | 1017.5 |
| 20260502035701 | 41 | 355 | 0.0 | 0.0 | 0.00 | 0.00 | 0.00 | 77 | 1017.5 |
| 20260502035400 | 41 | 355 | 0.0 | 0.0 | 0.00 | 0.00 | 0.00 | 77 | 1017.5 |
| 20260502035306 | 41 | 355 | 0.0 | 0.0 | 0.00 | 0.00 | 0.00 | 77 | 1017.5 |
| 20260502035100 | 41 | 355 | 0.0 | 0.0 | 0.00 | 0.00 | 0.00 | 77 | 1017.5 |
| 20260502035003 | 41 | 355 | 0.0 | 0.0 | 0.00 | 0.00 | 0.00 | 77 | 1017.5 |
| 20260502034901 | 41 | 355 | 0.0 | 0.0 | 0.00 | 0.00 | 0.00 | 77 | 1017.5 |
| 20260502034701 | 41 | 355 | 0.0 | 0.0 | 0.00 | 0.00 | 0.00 | 77 | 1017.4 |
| 20260502034600 | 41 | 355 | 0.0 | 0.0 | 0.00 | 0.00 | 0.00 | 77 | 1017.5 |
| 20260502034500 | 41 | 355 | 0.0 | 0.0 | 0.00 | 0.00 | 0.00 | 77 | 1017.5 |
| 20260502034401 | 41 | 355 | 0.0 | 0.0 | 0.00 | 0.00 | 0.00 | 77 | 1017.6 |
| 20260502034301 | 41 | 355 | 0.0 | 0.0 | 0.00 | 0.00 | 0.00 | 77 | 1017.5 |
| 20260502034202 | 41 | 355 | 0.0 | 0.0 | 0.00 | 0.00 | 0.00 | 77 | 1017.5 |
| 20260502034102 | 41 | 355 | 0.0 | 0.0 | 0.00 | 0.00 | 0.00 | 77 | 1017.6 |
| 20260502033900 | 41 | 355 | 0.0 | 0.0 | 0.00 | 0.00 | 0.00 | 77 | 1017.6 |
| 20260502033700 | 41 | 355 | 0.0 | 0.0 | 0.00 | 0.00 | 0.00 | 77 | 1017.6 |
| 20260502033600 | 41 | 355 | 0.0 | 0.0 | 0.00 | 0.00 | 0.00 | 77 | 1017.5 |
| 20260502033501 | 41 | 355 | 0.0 | 0.0 | 0.00 | 0.00 | 0.00 | 77 | 1017.6 |
| 20260502033401 | 41 | 355 | 0.0 | 0.0 | 0.00 | 0.00 | 0.00 | 77 | 1017.6 |
| 20260502033301 | 41 | 355 | 0.0 | 0.0 | 0.00 | 0.00 | 0.00 | 77 | 1017.5 |
| 20260502033200 | 41 | 355 | 0.0 | 0.0 | 0.00 | 0.00 | 0.00 | 77 | 1017.5 |
| 20260502033101 | 41 | 355 | 0.0 | 0.0 | 0.00 | 0.00 | 0.00 | 77 | 1017.6 |
| 20260502033001 | 41 | 355 | 0.0 | 0.0 | 0.00 | 0.00 | 0.00 | 77 | 1017.6 |
| 20260502032902 | 41 | 355 | 0.0 | 0.0 | 0.00 | 0.00 | 0.00 | 77 | 1017.6 |
| 20260502032701 | 41 | 355 | 0.0 | 0.0 | 0.00 | 0.00 | 0.00 | 77 | 1017.6 |
| 20260502032602 | 41 | 355 | 0.0 | 0.0 | 0.00 | 0.00 | 0.00 | 77 | 1017.5 |
| 20260502032502 | 41 | 355 | 0.0 | 0.0 | 0.00 | 0.00 | 0.00 | 77 | 1017.5 |
| 20260502032300 | 41 | 355 | 0.0 | 0.0 | 0.00 | 0.00 | 0.00 | 76 | 1017.5 |
| 20260502032201 | 41 | 355 | 0.0 | 0.0 | 0.00 | 0.00 | 0.00 | 76 | 1017.5 |
| 20260502032103 | 41 | 355 | 0.0 | 0.0 | 0.00 | 0.00 | 0.00 | 76 | 1017.4 |
| 20260502032003 | 42 | 355 | 0.0 | 0.0 | 0.00 | 0.00 | 0.00 | 76 | 1017.4 |
| 20260502031900 | 42 | 355 | 0.0 | 0.0 | 0.00 | 0.00 | 0.00 | 76 | 1017.4 |
| 20260502031801 | 42 | 355 | 0.0 | 0.0 | 0.00 | 0.00 | 0.00 | 76 | 1017.3 |
| 20260502031702 | 42 | 355 | 0.0 | 0.0 | 0.00 | 0.00 | 0.00 | 76 | 1017.3 |
| 20260502031602 | 42 | 355 | 0.0 | 0.0 | 0.00 | 0.00 | 0.00 | 76 | 1017.4 |
| 20260502031401 | 42 | 355 | 0.0 | 0.0 | 0.00 | 0.00 | 0.00 | 76 | 1017.4 |
| 20260502031301 | 42 | 355 | 0.0 | 0.0 | 0.00 | 0.00 | 0.00 | 76 | 1017.4 |
| 20260502031203 | 42 | 355 | 0.0 | 0.0 | 0.00 | 0.00 | 0.00 | 76 | 1017.4 |
| 20260502030901 | 42 | 355 | 0.0 | 0.0 | 0.00 | 0.00 | 0.00 | 76 | 1017.4 |
| 20260502030800 | 42 | 355 | 0.0 | 0.0 | 0.00 | 0.00 | 0.00 | 76 | 1017.4 |
| 20260502030701 | 42 | 355 | 0.0 | 0.0 | 0.00 | 0.00 | 0.00 | 76 | 1017.5 |
| 20260502030601 | 42 | 355 | 0.0 | 0.0 | 0.00 | 0.00 | 0.00 | 76 | 1017.5 |
| 20260502030503 | 42 | 355 | 0.0 | 0.0 | 0.00 | 0.00 | 0.00 | 76 | 1017.5 |
| 20260502030400 | 42 | 355 | 0.0 | 0.0 | 0.00 | 0.00 | 0.00 | 76 | 1017.5 |
| 20260502030302 | 42 | 355 | 0.0 | 0.0 | 0.00 | 0.00 | 0.00 | 76 | 1017.6 |
| 20260502030101 | 42 | 355 | 0.0 | 0.0 | 0.00 | 0.00 | 0.00 | 76 | 1017.5 |
| 20260502030001 | 42 | 355 | 0.0 | 0.0 | 0.00 | 0.00 | 0.00 | 76 | 1017.5 |
| 20260502025901 | 43 | 355 | 0.0 | 0.0 | 0.00 | 0.00 | 0.00 | 76 | 1017.4 |
| 20260502025801 | 43 | 355 | 0.0 | 0.0 | 0.00 | 0.00 | 0.00 | 76 | 1017.4 |
| 20260502025700 | 43 | 355 | 0.0 | 0.0 | 0.00 | 0.00 | 0.00 | 76 | 1017.4 |
| 20260502025601 | 43 | 355 | 0.0 | 0.0 | 0.00 | 0.00 | 0.00 | 75 | 1017.4 |
| 20260502025501 | 43 | 355 | 0.0 | 0.0 | 0.00 | 0.00 | 0.00 | 75 | 1017.3 |
| 20260502025402 | 43 | 355 | 0.0 | 0.0 | 0.00 | 0.00 | 0.00 | 75 | 1017.2 |
| 20260502025301 | 43 | 355 | 0.0 | 0.0 | 0.00 | 0.00 | 0.00 | 75 | 1017.3 |
| 20260502025202 | 43 | 355 | 0.0 | 0.0 | 0.00 | 0.00 | 0.00 | 75 | 1017.3 |
| 20260502025101 | 43 | 355 | 0.0 | 0.0 | 0.00 | 0.00 | 0.00 | 76 | 1017.3 |
| 20260502025001 | 43 | 355 | 0.0 | 0.0 | 0.00 | 0.00 | 0.00 | 76 | 1017.2 |
| 20260502024900 | 43 | 355 | 0.0 | 0.0 | 0.00 | 0.00 | 0.00 | 76 | 1017.3 |
| 20260502024801 | 43 | 355 | 0.0 | 0.0 | 0.00 | 0.00 | 0.00 | 76 | 1017.3 |
| 20260502024700 | 43 | 355 | 0.0 | 0.0 | 0.00 | 0.00 | 0.00 | 76 | 1017.3 |
| 20260502024601 | 43 | 355 | 0.0 | 0.0 | 0.00 | 0.00 | 0.00 | 76 | 1017.2 |
| 20260502024401 | 43 | 355 | 0.0 | 0.0 | 0.00 | 0.00 | 0.00 | 75 | 1017.3 |
| 20260502024201 | 43 | 355 | 0.0 | 0.0 | 0.00 | 0.00 | 0.00 | 74 | 1017.2 |
| 20260502024103 | 43 | 355 | 0.0 | 0.0 | 0.00 | 0.00 | 0.00 | 74 | 1017.3 |
| 20260502023902 | 43 | 355 | 0.0 | 0.0 | 0.00 | 0.00 | 0.00 | 74 | 1017.2 |
| 20260502023701 | 44 | 355 | 0.0 | 0.0 | 0.00 | 0.00 | 0.00 | 74 | 1017.3 |
| 20260502023600 | 44 | 355 | 0.0 | 0.0 | 0.00 | 0.00 | 0.00 | 73 | 1017.3 |
| 20260502023501 | 44 | 355 | 0.0 | 0.0 | 0.00 | 0.00 | 0.00 | 73 | 1017.3 |
| 20260502023402 | 44 | 355 | 0.0 | 0.0 | 0.00 | 0.00 | 0.00 | 73 | 1017.2 |
| 20260502023300 | 44 | 355 | 0.0 | 0.0 | 0.00 | 0.00 | 0.00 | 73 | 1017.1 |
| 20260502023200 | 44 | 355 | 0.0 | 0.0 | 0.00 | 0.00 | 0.00 | 72 | 1017.1 |
| 20260502023100 | 44 | 355 | 0.0 | 0.0 | 0.00 | 0.00 | 0.00 | 72 | 1017.1 |
| 20260502023003 | 44 | 355 | 0.0 | 0.0 | 0.00 | 0.00 | 0.00 | 72 | 1017.1 |
| 20260502022900 | 44 | 355 | 0.0 | 0.0 | 0.00 | 0.00 | 0.00 | 72 | 1017.0 |
| 20260502022802 | 44 | 355 | 0.0 | 0.0 | 0.00 | 0.00 | 0.00 | 72 | 1017.0 |
| 20260502022700 | 44 | 355 | 0.0 | 0.0 | 0.00 | 0.00 | 0.00 | 71 | 1017.1 |
| 20260502022502 | 44 | 355 | 0.0 | 0.0 | 0.00 | 0.00 | 0.00 | 71 | 1017.0 |
| 20260502022301 | 44 | 355 | 0.0 | 0.0 | 0.00 | 0.00 | 0.00 | 71 | 1016.9 |
| 20260502022100 | 44 | 355 | 0.0 | 0.0 | 0.00 | 0.00 | 0.00 | 70 | 1016.9 |
| 20260502021900 | 44 | 355 | 0.0 | 0.0 | 0.00 | 0.00 | 0.00 | 70 | 1017.0 |
| 20260502021800 | 44 | 355 | 0.0 | 0.0 | 0.00 | 0.00 | 0.00 | 70 | 1016.9 |
| 20260502021702 | 44 | 355 | 0.0 | 0.0 | 0.00 | 0.00 | 0.00 | 70 | 1017.0 |
| 20260502021601 | 45 | 355 | 0.0 | 0.0 | 0.00 | 0.00 | 0.00 | 70 | 1016.9 |
| 20260502021500 | 45 | 355 | 0.0 | 0.0 | 0.00 | 0.00 | 0.00 | 70 | 1016.9 |
| 20260502021302 | 45 | 355 | 0.0 | 0.0 | 0.00 | 0.00 | 0.00 | 70 | 1016.8 |
| 20260502021000 | 45 | 355 | 0.0 | 0.0 | 0.00 | 0.00 | 0.00 | 70 | 1016.7 |
| 20260502020901 | 45 | 355 | 0.0 | 0.0 | 0.00 | 0.00 | 0.00 | 70 | 1016.7 |
| 20260502020503 | 45 | 355 | 0.0 | 0.0 | 0.00 | 0.00 | 0.00 | 70 | 1016.7 |
| 20260502020402 | 45 | 355 | 0.0 | 0.0 | 0.00 | 0.00 | 0.00 | 70 | 1016.7 |
| 20260502020202 | 45 | 355 | 0.0 | 0.0 | 0.00 | 0.00 | 0.00 | 70 | 1016.7 |
| 20260502020100 | 45 | 355 | 0.0 | 0.0 | 0.00 | 0.00 | 0.00 | 70 | 1016.7 |
| 20260502015902 | 45 | 355 | 0.0 | 0.0 | 0.00 | 0.00 | 0.00 | 70 | 1016.6 |
| 20260502015803 | 45 | 355 | 0.0 | 0.0 | 0.00 | 0.00 | 0.00 | 70 | 1016.7 |
| 20260502015601 | 45 | 355 | 0.0 | 0.0 | 0.00 | 0.00 | 0.00 | 69 | 1016.6 |
| 20260502015503 | 45 | 355 | 0.0 | 0.0 | 0.00 | 0.00 | 0.00 | 69 | 1016.6 |
| 20260502015404 | 45 | 355 | 0.0 | 0.0 | 0.00 | 0.00 | 0.00 | 69 | 1016.7 |
| 20260502015305 | 45 | 355 | 0.0 | 0.0 | 0.00 | 0.00 | 0.00 | 69 | 1016.6 |
| 20260502015201 | 45 | 355 | 0.0 | 0.0 | 0.00 | 0.00 | 0.00 | 69 | 1016.6 |
| 20260502015103 | 45 | 355 | 0.0 | 0.0 | 0.00 | 0.00 | 0.00 | 69 | 1016.5 |
| 20260502015001 | 45 | 342 | 0.0 | 0.0 | 0.00 | 0.00 | 0.00 | 70 | 1016.5 |
| 20260502014901 | 45 | 344 | 0.0 | 0.0 | 0.00 | 0.00 | 0.00 | 70 | 1016.5 |
| 20260502014701 | 45 | 344 | 0.0 | 0.0 | 0.00 | 0.00 | 0.00 | 69 | 1016.5 |
| 20260502014602 | 45 | 344 | 0.0 | 0.0 | 0.00 | 0.00 | 0.00 | 69 | 1016.4 |
| 20260502014501 | 45 | 344 | 0.0 | 0.0 | 0.00 | 0.00 | 0.00 | 69 | 1016.4 |
| 20260502014402 | 45 | 344 | 0.0 | 0.0 | 0.00 | 0.00 | 0.00 | 69 | 1016.4 |
| 20260502014305 | 45 | 344 | 0.0 | 0.0 | 0.00 | 0.00 | 0.00 | 69 | 1016.4 |
| 20260502014201 | 45 | 344 | 0.0 | 0.0 | 0.00 | 0.00 | 0.00 | 69 | 1016.3 |
| 20260502014101 | 45 | 344 | 0.0 | 0.0 | 0.00 | 0.00 | 0.00 | 69 | 1016.3 |
| 20260502014001 | 45 | 344 | 0.0 | 0.0 | 0.00 | 0.00 | 0.00 | 69 | 1016.3 |
| 20260502013801 | 46 | 344 | 0.0 | 0.0 | 0.00 | 0.00 | 0.00 | 70 | 1016.3 |
| 20260502013703 | 46 | 344 | 0.0 | 0.0 | 0.00 | 0.00 | 0.00 | 70 | 1016.3 |
| 20260502013600 | 46 | 344 | 0.0 | 0.0 | 0.00 | 0.00 | 0.00 | 70 | 1016.3 |
| 20260502013501 | 46 | 344 | 0.0 | 0.0 | 0.00 | 0.00 | 0.00 | 69 | 1016.3 |
| 20260502013301 | 46 | 344 | 0.0 | 0.0 | 0.00 | 0.00 | 0.00 | 69 | 1016.3 |
| 20260502013200 | 46 | 344 | 0.0 | 0.0 | 0.00 | 0.00 | 0.00 | 69 | 1016.3 |
| 20260502013101 | 46 | 344 | 0.0 | 0.0 | 0.00 | 0.00 | 0.00 | 69 | 1016.3 |
| 20260502013002 | 46 | 344 | 0.0 | 0.0 | 0.00 | 0.00 | 0.00 | 69 | 1016.3 |
| 20260502012802 | 46 | 344 | 0.0 | 0.0 | 0.00 | 0.00 | 0.00 | 69 | 1016.3 |
| 20260502012500 | 46 | 344 | 0.0 | 0.0 | 0.00 | 0.00 | 0.00 | 69 | 1016.3 |
| 20260502012200 | 46 | 344 | 0.0 | 0.0 | 0.00 | 0.00 | 0.00 | 68 | 1016.3 |
| 20260502012101 | 46 | 344 | 0.0 | 0.0 | 0.00 | 0.00 | 0.00 | 68 | 1016.3 |
| 20260502011900 | 46 | 344 | 0.0 | 0.0 | 0.00 | 0.00 | 0.00 | 68 | 1016.3 |
| 20260502011801 | 46 | 344 | 0.0 | 0.0 | 0.00 | 0.00 | 0.00 | 68 | 1016.3 |
| 20260502011700 | 46 | 344 | 0.0 | 0.0 | 0.00 | 0.00 | 0.00 | 68 | 1016.3 |
| 20260502011600 | 46 | 344 | 0.0 | 0.0 | 0.00 | 0.00 | 0.00 | 68 | 1016.3 |
| 20260502011301 | 47 | 344 | 0.0 | 0.0 | 0.00 | 0.00 | 0.00 | 67 | 1016.3 |
| 20260502011202 | 47 | 344 | 0.0 | 0.0 | 0.00 | 0.00 | 0.00 | 67 | 1016.3 |
| 20260502011102 | 47 | 344 | 0.0 | 0.0 | 0.00 | 0.00 | 0.00 | 67 | 1016.3 |
| 20260502010900 | 47 | 344 | 0.0 | 0.0 | 0.00 | 0.00 | 0.00 | 66 | 1016.1 |
| 20260502010801 | 47 | 344 | 0.0 | 0.0 | 0.00 | 0.00 | 0.00 | 65 | 1016.1 |
| 20260502010701 | 47 | 344 | 0.0 | 0.0 | 0.00 | 0.00 | 0.00 | 65 | 1016.0 |
| 20260502010601 | 47 | 344 | 0.0 | 0.0 | 0.00 | 0.00 | 0.00 | 65 | 1016.0 |
| 20260502010502 | 47 | 344 | 0.0 | 0.0 | 0.00 | 0.00 | 0.00 | 65 | 1016.0 |
| 20260502010300 | 47 | 344 | 0.0 | 0.0 | 0.00 | 0.00 | 0.00 | 64 | 1015.9 |
| 20260502010201 | 47 | 344 | 0.0 | 0.0 | 0.00 | 0.00 | 0.00 | 63 | 1015.9 |
| 20260502010101 | 47 | 344 | 0.0 | 0.0 | 0.00 | 0.00 | 0.00 | 63 | 1015.9 |
| 20260502010000 | 47 | 344 | 0.0 | 0.0 | 0.00 | 0.00 | 0.00 | 63 | 1015.9 |
| 20260502005800 | 48 | 344 | 0.0 | 0.0 | 0.00 | 0.00 | 0.00 | 63 | 1016.0 |
| 20260502005702 | 48 | 344 | 0.0 | 0.0 | 0.00 | 0.00 | 0.00 | 63 | 1016.0 |
| 20260502005601 | 48 | 344 | 0.0 | 0.0 | 0.00 | 0.00 | 0.00 | 62 | 1016.0 |
| 20260502005500 | 48 | 344 | 0.0 | 0.0 | 0.00 | 0.00 | 0.00 | 63 | 1016.0 |
| 20260502005402 | 48 | 344 | 0.0 | 0.0 | 0.00 | 0.00 | 0.00 | 63 | 1016.0 |
| 20260502005201 | 48 | 344 | 0.0 | 0.0 | 0.00 | 0.00 | 0.00 | 62 | 1016.0 |
| 20260502005101 | 48 | 344 | 0.0 | 0.0 | 0.00 | 0.00 | 0.00 | 62 | 1015.9 |
| 20260502005002 | 48 | 344 | 0.0 | 0.0 | 0.00 | 0.00 | 0.00 | 62 | 1015.9 |
| 20260502004900 | 48 | 344 | 0.0 | 0.0 | 0.00 | 0.00 | 0.00 | 62 | 1015.8 |
| 20260502004801 | 48 | 344 | 0.0 | 0.0 | 0.00 | 0.00 | 0.00 | 62 | 1015.9 |
| 20260502004700 | 48 | 344 | 0.0 | 0.0 | 0.00 | 0.00 | 0.00 | 62 | 1015.9 |
| 20260502004503 | 49 | 344 | 0.0 | 0.0 | 0.00 | 0.00 | 0.00 | 61 | 1015.8 |
| 20260502004401 | 49 | 344 | 0.0 | 0.0 | 0.00 | 0.00 | 0.00 | 61 | 1015.8 |
| 20260502004303 | 49 | 344 | 0.0 | 0.0 | 0.00 | 0.00 | 0.00 | 61 | 1015.8 |
| 20260502004101 | 49 | 344 | 0.0 | 0.0 | 0.00 | 0.00 | 0.00 | 61 | 1015.7 |
| 20260502004002 | 49 | 344 | 0.0 | 0.0 | 0.00 | 0.00 | 0.00 | 61 | 1015.6 |
| 20260502003803 | 49 | 344 | 0.0 | 0.0 | 0.00 | 0.00 | 0.00 | 61 | 1015.6 |
| 20260502003701 | 49 | 344 | 0.0 | 0.0 | 0.00 | 0.00 | 0.00 | 61 | 1015.5 |
| 20260502003601 | 49 | 344 | 0.0 | 1.0 | 0.00 | 0.00 | 0.00 | 61 | 1015.6 |
| 20260502003502 | 49 | 344 | 0.0 | 2.0 | 0.00 | 0.00 | 0.00 | 62 | 1015.5 |
| 20260502003403 | 49 | 344 | 0.0 | 2.0 | 0.00 | 0.00 | 0.00 | 61 | 1015.4 |
| 20260502003302 | 49 | 344 | 0.0 | 2.0 | 0.00 | 0.00 | 0.00 | 61 | 1015.3 |
| 20260502003201 | 49 | 344 | 0.0 | 2.0 | 0.00 | 0.00 | 0.00 | 61 | 1015.3 |
| 20260502003102 | 49 | 344 | 0.0 | 2.0 | 0.00 | 0.00 | 0.00 | 61 | 1015.2 |
| 20260502002901 | 49 | 344 | 0.0 | 2.0 | 0.00 | 0.00 | 0.00 | 60 | 1015.1 |
| 20260502002802 | 50 | 344 | 0.0 | 2.0 | 0.00 | 0.00 | 0.00 | 60 | 1015.1 |
| 20260502002703 | 50 | 344 | 0.0 | 3.0 | 0.00 | 0.00 | 0.00 | 60 | 1014.9 |
| 20260502002601 | 50 | 344 | 1.0 | 3.0 | 0.00 | 0.00 | 0.00 | 60 | 1014.9 |
| 20260502002502 | 50 | 344 | 0.0 | 3.0 | 0.00 | 0.00 | 0.00 | 60 | 1014.9 |
| 20260502002400 | 50 | 344 | 0.0 | 3.0 | 0.00 | 0.00 | 0.00 | 60 | 1014.9 |
| 20260502002102 | 50 | 344 | 0.0 | 3.0 | 0.00 | 0.00 | 0.00 | 59 | 1014.9 |
| 20260502001901 | 50 | 344 | 0.0 | 4.0 | 0.00 | 0.00 | 0.00 | 59 | 1014.8 |
| 20260502001801 | 50 | 22 | 1.0 | 4.0 | 0.00 | 0.00 | 0.00 | 59 | 1014.8 |
| 20260502001700 | 50 | 5 | 0.0 | 5.0 | 0.00 | 0.00 | 0.00 | 59 | 1014.7 |
| 20260502001601 | 50 | 5 | 0.0 | 5.0 | 0.00 | 0.00 | 0.00 | 58 | 1014.8 |
| 20260502001501 | 50 | 5 | 0.0 | 5.0 | 0.00 | 0.00 | 0.00 | 59 | 1014.7 |
| 20260502001402 | 50 | 5 | 1.0 | 5.0 | 0.00 | 0.00 | 0.00 | 58 | 1014.8 |
| 20260502001301 | 50 | 5 | 0.0 | 5.0 | 0.00 | 0.00 | 0.00 | 57 | 1014.8 |
| 20260502001200 | 50 | 5 | 2.0 | 5.0 | 0.00 | 0.00 | 0.00 | 57 | 1014.7 |
| 20260502001100 | 50 | 348 | 1.0 | 5.0 | 0.00 | 0.00 | 0.00 | 57 | 1014.7 |
| 20260502001002 | 50 | 355 | 2.0 | 5.0 | 0.00 | 0.00 | 0.00 | 57 | 1014.7 |
| 20260502000904 | 51 | 10 | 2.0 | 5.0 | 0.00 | 0.00 | 0.00 | 57 | 1014.7 |
| 20260502000801 | 51 | 17 | 2.0 | 5.0 | 0.00 | 0.00 | 0.00 | 57 | 1014.7 |
| 20260502000701 | 51 | 344 | 2.0 | 5.0 | 0.00 | 0.00 | 0.00 | 57 | 1014.7 |
| 20260502000602 | 51 | 23 | 3.0 | 5.0 | 0.00 | 0.00 | 0.00 | 57 | 1014.8 |
| 20260502000503 | 51 | 19 | 2.0 | 5.0 | 0.00 | 0.00 | 0.00 | 57 | 1014.7 |
| 20260502000402 | 51 | 19 | 0.0 | 5.0 | 0.00 | 0.00 | 0.00 | 57 | 1014.7 |
| 20260502000201 | 51 | 355 | 0.0 | 5.0 | 0.00 | 0.00 | 0.00 | 56 | 1014.8 |
| 20260502000104 | 51 | 355 | 2.0 | 5.0 | 0.00 | 0.00 | 0.00 | 56 | 1014.7 |
| 20260502000008 | 51 | 5 | 4.0 | 4.0 | 0.00 | 0.00 | 0.00 | 57 | 1014.7 |
| 20260501235902 | 51 | 14 | 1.0 | 4.0 | 0.00 | 0.00 | 0.00 | 57 | 1014.8 |
| 20260501235704 | 51 | 18 | 2.0 | 4.0 | 0.00 | 0.00 | 0.00 | 57 | 1014.8 |
| 20260501235604 | 51 | 5 | 1.0 | 4.0 | 0.00 | 0.00 | 0.00 | 57 | 1014.7 |
| 20260501235502 | 51 | 5 | 0.0 | 4.0 | 0.00 | 0.00 | 0.00 | 57 | 1014.7 |
| 20260501235402 | 51 | 5 | 1.0 | 4.0 | 0.00 | 0.00 | 0.00 | 57 | 1014.8 |
| 20260501235305 | 51 | 5 | 0.0 | 4.0 | 0.00 | 0.00 | 0.00 | 56 | 1014.8 |
| 20260501235202 | 51 | 5 | 0.0 | 4.0 | 0.00 | 0.00 | 0.00 | 56 | 1014.8 |
| 20260501235103 | 51 | 5 | 1.0 | 4.0 | 0.00 | 0.00 | 0.00 | 56 | 1014.8 |
| 20260501235001 | 52 | 341 | 1.0 | 3.0 | 0.00 | 0.00 | 0.00 | 56 | 1014.9 |
| 20260501234802 | 52 | 350 | 0.0 | 4.0 | 0.00 | 0.00 | 0.00 | 56 | 1014.9 |
| 20260501234702 | 52 | 5 | 0.0 | 6.0 | 0.00 | 0.00 | 0.00 | 56 | 1014.8 |
| 20260501234602 | 52 | 5 | 0.0 | 6.0 | 0.00 | 0.00 | 0.00 | 56 | 1014.9 |
| 20260501234500 | 52 | 5 | 0.0 | 6.0 | 0.00 | 0.00 | 0.00 | 55 | 1014.9 |
| 20260501234403 | 52 | 341 | 0.0 | 6.0 | 0.00 | 0.00 | 0.00 | 55 | 1014.9 |
| 20260501234200 | 52 | 348 | 0.0 | 6.0 | 0.00 | 0.00 | 0.00 | 55 | 1014.9 |
| 20260501234101 | 52 | 355 | 0.0 | 6.0 | 0.00 | 0.00 | 0.00 | 53 | 1014.9 |
| 20260501234000 | 52 | 14 | 0.0 | 6.0 | 0.00 | 0.00 | 0.00 | 52 | 1014.8 |
| 20260501233900 | 52 | 24 | 5.0 | 7.0 | 0.00 | 0.00 | 0.00 | 54 | 1014.9 |
| 20260501233800 | 52 | 336 | 0.0 | 5.0 | 0.00 | 0.00 | 0.00 | 55 | 1015.0 |
| 20260501233702 | 52 | 336 | 0.0 | 5.0 | 0.00 | 0.00 | 0.00 | 55 | 1014.9 |
| 20260501233600 | 52 | 360 | 0.0 | 5.0 | 0.00 | 0.00 | 0.00 | 55 | 1014.9 |
| 20260501233502 | 52 | 11 | 0.0 | 5.0 | 0.00 | 0.00 | 0.00 | 54 | 1015.0 |
| 20260501233401 | 52 | 30 | 1.0 | 5.0 | 0.00 | 0.00 | 0.00 | 53 | 1015.0 |
| 20260501233300 | 52 | 34 | 2.0 | 6.0 | 0.00 | 0.00 | 0.00 | 53 | 1015.0 |
| 20260501233004 | 52 | 25 | 2.0 | 8.0 | 0.00 | 0.00 | 0.00 | 53 | 1015.0 |
| 20260501232903 | 53 | 28 | 1.0 | 8.0 | 0.00 | 0.00 | 0.00 | 53 | 1015.0 |
| 20260501232800 | 53 | 12 | 1.0 | 8.0 | 0.00 | 0.00 | 0.00 | 53 | 1015.1 |
| 20260501232702 | 53 | 23 | 3.0 | 8.0 | 0.00 | 0.00 | 0.00 | 53 | 1015.1 |
| 20260501232601 | 53 | 47 | 1.0 | 8.0 | 0.00 | 0.00 | 0.00 | 52 | 1015.0 |
| 20260501232503 | 53 | 29 | 4.0 | 8.0 | 0.00 | 0.00 | 0.00 | 53 | 1015.2 |
| 20260501232305 | 53 | 18 | 3.0 | 5.0 | 0.00 | 0.00 | 0.00 | 54 | 1015.2 |
| 20260501232200 | 53 | 14 | 0.0 | 4.0 | 0.00 | 0.00 | 0.00 | 55 | 1015.2 |
| 20260501232002 | 53 | 15 | 0.0 | 5.0 | 0.00 | 0.00 | 0.00 | 53 | 1015.2 |
| 20260501231901 | 53 | 10 | 1.0 | 5.0 | 0.00 | 0.00 | 0.00 | 53 | 1015.2 |
| 20260501231804 | 53 | 5 | 0.0 | 5.0 | 0.00 | 0.00 | 0.00 | 54 | 1015.2 |
| 20260501231702 | 53 | 9 | 0.0 | 5.0 | 0.00 | 0.00 | 0.00 | 53 | 1015.1 |
| 20260501231602 | 53 | 360 | 1.0 | 5.0 | 0.00 | 0.00 | 0.00 | 54 | 1015.1 |
| 20260501231500 | 53 | 330 | 1.0 | 5.0 | 0.00 | 0.00 | 0.00 | 53 | 1015.0 |
| 20260501231402 | 53 | 350 | 3.0 | 5.0 | 0.00 | 0.00 | 0.00 | 54 | 1015.0 |
| 20260501231301 | 53 | 34 | 1.0 | 5.0 | 0.00 | 0.00 | 0.00 | 54 | 1015.1 |
| 20260501231201 | 53 | 360 | 2.0 | 3.0 | 0.00 | 0.00 | 0.00 | 54 | 1015.0 |
| 20260501231103 | 53 | 355 | 1.0 | 3.0 | 0.00 | 0.00 | 0.00 | 54 | 1015.1 |
| 20260501231000 | 53 | 355 | 0.0 | 2.0 | 0.00 | 0.00 | 0.00 | 54 | 1015.0 |
| 20260501230902 | 53 | 15 | 0.0 | 2.0 | 0.00 | 0.00 | 0.00 | 54 | 1015.0 |
| 20260501230801 | 53 | 360 | 0.0 | 5.0 | 0.00 | 0.00 | 0.00 | 53 | 1015.0 |
| 20260501230701 | 53 | 5 | 0.0 | 5.0 | 0.00 | 0.00 | 0.00 | 54 | 1015.0 |
| 20260501230602 | 53 | 341 | 0.0 | 5.0 | 0.00 | 0.00 | 0.00 | 53 | 1015.1 |
| 20260501230501 | 53 | 348 | 0.0 | 5.0 | 0.00 | 0.00 | 0.00 | 54 | 1015.1 |
| 20260501230403 | 53 | 348 | 0.0 | 5.0 | 0.00 | 0.00 | 0.00 | 53 | 1015.0 |
| 20260501230301 | 53 | 350 | 0.0 | 5.0 | 0.00 | 0.00 | 0.00 | 53 | 1015.1 |
| 20260501230201 | 53 | 348 | 0.0 | 5.0 | 0.00 | 0.00 | 0.00 | 52 | 1015.2 |
| 20260501230004 | 53 | 325 | 2.0 | 5.0 | 0.00 | 0.00 | 0.00 | 52 | 1015.1 |
| 20260501225900 | 53 | 331 | 2.0 | 5.0 | 0.00 | 0.00 | 0.00 | 54 | 1015.0 |
| 20260501225801 | 53 | 355 | 0.0 | 5.0 | 0.00 | 0.00 | 0.00 | 53 | 1015.1 |
| 20260501225602 | 53 | 350 | 0.0 | 5.0 | 0.00 | 0.00 | 0.00 | 55 | 1015.0 |
| 20260501225501 | 53 | 350 | 0.0 | 5.0 | 0.00 | 0.00 | 0.00 | 54 | 1015.0 |
| 20260501225400 | 53 | 350 | 0.0 | 5.0 | 0.00 | 0.00 | 0.00 | 53 | 1015.0 |
| 20260501225305 | 53 | 345 | 0.0 | 8.0 | 0.00 | 0.00 | 0.00 | 53 | 1015.0 |
| 20260501225200 | 54 | 360 | 1.0 | 11.0 | 0.00 | 0.00 | 0.00 | 54 | 1015.0 |
| 20260501225101 | 54 | 349 | 3.0 | 11.0 | 0.00 | 0.00 | 0.00 | 53 | 1014.9 |
| 20260501224900 | 54 | 327 | 0.0 | 11.0 | 0.00 | 0.00 | 0.00 | 54 | 1014.9 |
| 20260501224701 | 54 | 5 | 1.0 | 11.0 | 0.00 | 0.00 | 0.00 | 53 | 1014.9 |
| 20260501224600 | 54 | 9 | 1.0 | 11.0 | 0.00 | 0.00 | 0.00 | 53 | 1014.9 |
| 20260501224502 | 54 | 9 | 5.0 | 11.0 | 0.00 | 0.00 | 0.00 | 51 | 1014.9 |
| 20260501224401 | 54 | 340 | 8.0 | 11.0 | 0.00 | 0.00 | 0.00 | 52 | 1014.9 |
| 20260501224302 | 54 | 13 | 3.0 | 6.0 | 0.00 | 0.00 | 0.00 | 51 | 1014.9 |
| 20260501224201 | 55 | 348 | 4.0 | 9.0 | 0.00 | 0.00 | 0.00 | 52 | 1014.9 |
| 20260501224101 | 55 | 15 | 5.0 | 9.0 | 0.00 | 0.00 | 0.00 | 52 | 1014.9 |
| 20260501224000 | 55 | 10 | 0.0 | 9.0 | 0.00 | 0.00 | 0.00 | 52 | 1014.9 |
| 20260501223901 | 55 | 10 | 0.0 | 9.0 | 0.00 | 0.00 | 0.00 | 51 | 1014.9 |
| 20260501223801 | 55 | 9 | 0.0 | 9.0 | 0.00 | 0.00 | 0.00 | 51 | 1014.9 |
| 20260501223701 | 55 | 36 | 0.0 | 9.0 | 0.00 | 0.00 | 0.00 | 52 | 1014.8 |
| 20260501223502 | 55 | 5 | 0.0 | 9.0 | 0.00 | 0.00 | 0.00 | 52 | 1014.8 |
| 20260501223400 | 55 | 5 | 4.0 | 9.0 | 0.00 | 0.00 | 0.00 | 52 | 1014.9 |
| 20260501223300 | 55 | 339 | 2.0 | 4.0 | 0.00 | 0.00 | 0.00 | 54 | 1014.8 |
| 20260501223201 | 55 | 339 | 1.0 | 4.0 | 0.00 | 0.00 | 0.00 | 53 | 1014.8 |
| 20260501223002 | 55 | 255 | 2.0 | 4.0 | 0.00 | 0.00 | 0.00 | 55 | 1014.8 |
| 20260501222900 | 55 | 337 | 1.0 | 3.0 | 0.00 | 0.00 | 0.00 | 55 | 1014.8 |
| 20260501222800 | 55 | 328 | 0.0 | 3.0 | 0.00 | 0.00 | 0.00 | 55 | 1014.8 |
| 20260501222702 | 55 | 313 | 0.0 | 3.0 | 0.00 | 0.00 | 0.00 | 56 | 1014.8 |
| 20260501222602 | 54 | 338 | 0.0 | 3.0 | 0.00 | 0.00 | 0.00 | 56 | 1014.8 |
| 20260501222500 | 54 | 350 | 1.0 | 4.0 | 0.00 | 0.00 | 0.00 | 55 | 1014.7 |
| 20260501222300 | 54 | 23 | 2.0 | 4.0 | 0.00 | 0.00 | 0.00 | 56 | 1014.8 |
| 20260501222200 | 54 | 205 | 0.0 | 4.0 | 0.00 | 0.00 | 0.00 | 56 | 1014.8 |
| 20260501222101 | 54 | 300 | 0.0 | 4.0 | 0.00 | 0.00 | 0.00 | 56 | 1014.8 |
| 20260501222000 | 54 | 343 | 0.0 | 4.0 | 0.00 | 0.00 | 0.00 | 56 | 1014.9 |
| 20260501221901 | 54 | 338 | 0.0 | 4.0 | 0.00 | 0.00 | 0.00 | 56 | 1014.9 |
| 20260501221801 | 54 | 333 | 1.0 | 4.0 | 0.00 | 0.00 | 0.00 | 56 | 1014.9 |
| 20260501221700 | 54 | 351 | 2.0 | 4.0 | 0.00 | 0.00 | 0.00 | 56 | 1014.9 |
| 20260501221502 | 54 | 63 | 0.0 | 6.0 | 0.00 | 0.00 | 0.00 | 56 | 1014.8 |
| 20260501221401 | 54 | 37 | 0.0 | 8.0 | 0.00 | 0.00 | 0.00 | 56 | 1014.9 |
| 20260501221202 | 54 | 349 | 2.0 | 8.0 | 0.00 | 0.00 | 0.00 | 56 | 1014.9 |
| 20260501221001 | 54 | 27 | 0.0 | 8.0 | 0.00 | 0.00 | 0.00 | 55 | 1015.0 |
| 20260501220900 | 54 | 27 | 2.0 | 8.0 | 0.00 | 0.00 | 0.00 | 54 | 1014.9 |
| 20260501220802 | 54 | 360 | 2.0 | 8.0 | 0.00 | 0.00 | 0.00 | 54 | 1014.9 |
| 20260501220700 | 54 | 23 | 3.0 | 8.0 | 0.00 | 0.00 | 0.00 | 54 | 1015.0 |
| 20260501220601 | 54 | 333 | 2.0 | 8.0 | 0.00 | 0.00 | 0.00 | 53 | 1015.0 |
| 20260501220501 | 55 | 5 | 5.0 | 8.0 | 0.00 | 0.00 | 0.00 | 53 | 1015.0 |
| 20260501220401 | 55 | 360 | 1.0 | 6.0 | 0.00 | 0.00 | 0.00 | 53 | 1015.0 |
| 20260501220303 | 55 | 335 | 0.0 | 6.0 | 0.00 | 0.00 | 0.00 | 52 | 1015.0 |
| 20260501220005 | 55 | 355 | 1.0 | 8.0 | 0.00 | 0.00 | 0.00 | 53 | 1015.0 |
| 20260501215901 | 55 | 320 | 1.0 | 8.0 | 0.00 | 0.00 | 0.00 | 53 | 1014.9 |
| 20260501215700 | 55 | 346 | 1.0 | 8.0 | 0.00 | 0.00 | 0.00 | 53 | 1014.8 |
| 20260501215600 | 55 | 297 | 1.0 | 8.0 | 0.00 | 0.00 | 0.00 | 53 | 1014.8 |
| 20260501215502 | 55 | 355 | 1.0 | 8.0 | 0.00 | 0.00 | 0.00 | 55 | 1014.8 |
| 20260501215400 | 55 | 14 | 2.0 | 8.0 | 0.00 | 0.00 | 0.00 | 55 | 1014.8 |
| 20260501215305 | 55 | 360 | 6.0 | 8.0 | 0.00 | 0.00 | 0.00 | 56 | 1014.8 |
| 20260501215200 | 55 | 355 | 1.0 | 6.0 | 0.00 | 0.00 | 0.00 | 56 | 1014.8 |
| 20260501215102 | 55 | 331 | 0.0 | 6.0 | 0.00 | 0.00 | 0.00 | 55 | 1014.9 |
| 20260501215001 | 55 | 355 | 0.0 | 10.0 | 0.00 | 0.00 | 0.00 | 56 | 1014.8 |
| 20260501214902 | 55 | 319 | 0.0 | 10.0 | 0.00 | 0.00 | 0.00 | 56 | 1014.9 |
| 20260501214801 | 55 | 336 | 3.0 | 10.0 | 0.00 | 0.00 | 0.00 | 56 | 1014.9 |
| 20260501214602 | 55 | 27 | 0.0 | 10.0 | 0.00 | 0.00 | 0.00 | 56 | 1014.8 |
| 20260501214500 | 55 | 341 | 0.0 | 10.0 | 0.00 | 0.00 | 0.00 | 55 | 1014.8 |
| 20260501214400 | 55 | 340 | 1.0 | 10.0 | 0.00 | 0.00 | 0.00 | 56 | 1014.7 |
| 20260501214301 | 55 | 346 | 2.0 | 10.0 | 0.00 | 0.00 | 0.00 | 56 | 1014.8 |
| 20260501214200 | 55 | 33 | 2.0 | 10.0 | 0.00 | 0.00 | 0.00 | 56 | 1014.8 |
| 20260501214101 | 55 | 33 | 3.0 | 11.0 | 0.00 | 0.00 | 0.00 | 55 | 1014.8 |
| 20260501213902 | 55 | 49 | 1.0 | 11.0 | 0.00 | 0.00 | 0.00 | 56 | 1014.8 |
| 20260501213802 | 55 | 331 | 3.0 | 11.0 | 0.00 | 0.00 | 0.00 | 56 | 1014.7 |
| 20260501213701 | 55 | 9 | 1.0 | 11.0 | 0.00 | 0.00 | 0.00 | 55 | 1014.8 |
| 20260501213603 | 55 | 336 | 3.0 | 11.0 | 0.00 | 0.00 | 0.00 | 56 | 1014.8 |
| 20260501213400 | 55 | 157 | 0.0 | 11.0 | 0.00 | 0.00 | 0.00 | 56 | 1014.7 |
| 20260501213301 | 55 | 341 | 1.0 | 11.0 | 0.00 | 0.00 | 0.00 | 56 | 1014.7 |
| 20260501213201 | 55 | 9 | 2.0 | 11.0 | 0.00 | 0.00 | 0.00 | 55 | 1014.7 |
| 20260501213102 | 55 | 9 | 5.0 | 10.0 | 0.00 | 0.00 | 0.00 | 56 | 1014.8 |
| 20260501213001 | 55 | 265 | 1.0 | 10.0 | 0.00 | 0.00 | 0.00 | 56 | 1014.7 |
| 20260501212901 | 55 | 344 | 2.0 | 10.0 | 0.00 | 0.00 | 0.00 | 56 | 1014.7 |
| 20260501212801 | 55 | 338 | 3.0 | 10.0 | 0.00 | 0.00 | 0.00 | 55 | 1014.8 |
| 20260501212700 | 55 | 323 | 0.0 | 10.0 | 0.00 | 0.00 | 0.00 | 55 | 1014.7 |
| 20260501212602 | 55 | 13 | 5.0 | 9.0 | 0.00 | 0.00 | 0.00 | 57 | 1014.7 |
| 20260501212500 | 55 | 355 | 1.0 | 9.0 | 0.00 | 0.00 | 0.00 | 57 | 1014.7 |
| 20260501212401 | 55 | 11 | 1.0 | 9.0 | 0.00 | 0.00 | 0.00 | 57 | 1014.7 |
| 20260501212104 | 55 | 35 | 2.0 | 10.0 | 0.00 | 0.00 | 0.00 | 58 | 1014.6 |
| 20260501212001 | 55 | 333 | 2.0 | 10.0 | 0.00 | 0.00 | 0.00 | 58 | 1014.5 |
| 20260501211902 | 55 | 13 | 0.0 | 10.0 | 0.00 | 0.00 | 0.00 | 57 | 1014.6 |
| 20260501211800 | 55 | 10 | 1.0 | 10.0 | 0.00 | 0.00 | 0.00 | 56 | 1014.6 |
| 20260501211701 | 55 | 351 | 5.0 | 10.0 | 0.00 | 0.00 | 0.00 | 57 | 1014.6 |
| 20260501211600 | 55 | 343 | 3.0 | 10.0 | 0.00 | 0.00 | 0.00 | 55 | 1014.7 |
| 20260501211502 | 55 | 9 | 3.0 | 10.0 | 0.00 | 0.00 | 0.00 | 55 | 1014.6 |
| 20260501211401 | 55 | 34 | 5.0 | 10.0 | 0.00 | 0.00 | 0.00 | 55 | 1014.6 |
| 20260501211300 | 55 | 36 | 9.0 | 9.0 | 0.00 | 0.00 | 0.00 | 56 | 1014.6 |
| 20260501211203 | 55 | 19 | 2.0 | 9.0 | 0.00 | 0.00 | 0.00 | 57 | 1014.6 |
| 20260501211101 | 55 | 346 | 1.0 | 9.0 | 0.00 | 0.00 | 0.00 | 57 | 1014.7 |
| 20260501210901 | 55 | 355 | 1.0 | 9.0 | 0.00 | 0.00 | 0.00 | 58 | 1014.7 |
| 20260501210800 | 55 | 336 | 2.0 | 9.0 | 0.00 | 0.00 | 0.00 | 57 | 1014.7 |
| 20260501210700 | 55 | 355 | 0.0 | 9.0 | 0.00 | 0.00 | 0.00 | 56 | 1014.7 |
| 20260501210602 | 55 | 351 | 1.0 | 9.0 | 0.00 | 0.00 | 0.00 | 55 | 1014.7 |
| 20260501210500 | 56 | 19 | 3.0 | 9.0 | 0.00 | 0.00 | 0.00 | 54 | 1014.7 |
| 20260501210401 | 56 | 327 | 9.0 | 13.0 | 0.00 | 0.00 | 0.00 | 54 | 1014.7 |
| 20260501210302 | 56 | 193 | 3.0 | 13.0 | 0.00 | 0.00 | 0.00 | 55 | 1014.7 |
| 20260501210200 | 56 | 5 | 2.0 | 13.0 | 0.00 | 0.00 | 0.00 | 54 | 1014.6 |
| 20260501210005 | 56 | 355 | 2.0 | 13.0 | 0.00 | 0.00 | 0.00 | 54 | 1014.6 |
| 20260501205801 | 57 | 338 | 0.0 | 13.0 | 0.00 | 0.00 | 0.00 | 53 | 1014.7 |
| 20260501205702 | 57 | 339 | 3.0 | 13.0 | 0.00 | 0.00 | 0.00 | 53 | 1014.7 |
| 20260501205600 | 57 | 43 | 3.0 | 13.0 | 0.00 | 0.00 | 0.00 | 53 | 1014.5 |
| 20260501205501 | 58 | 9 | 5.0 | 13.0 | 0.00 | 0.00 | 0.00 | 52 | 1014.6 |
| 20260501205401 | 58 | 5 | 4.0 | 9.0 | 0.00 | 0.00 | 0.00 | 53 | 1014.6 |
| 20260501205306 | 58 | 304 | 0.0 | 6.0 | 0.00 | 0.00 | 0.00 | 56 | 1014.6 |
| 20260501205201 | 58 | 339 | 6.0 | 6.0 | 0.00 | 0.00 | 0.00 | 57 | 1014.6 |
| 20260501205101 | 58 | 9 | 2.0 | 4.0 | 0.00 | 0.00 | 0.00 | 57 | 1014.5 |
| 20260501205001 | 57 | 346 | 1.0 | 5.0 | 0.00 | 0.00 | 0.00 | 59 | 1014.6 |
| 20260501204900 | 57 | 360 | 1.0 | 5.0 | 0.00 | 0.00 | 0.00 | 58 | 1014.6 |
| 20260501204802 | 57 | 5 | 0.0 | 5.0 | 0.00 | 0.00 | 0.00 | 55 | 1014.6 |
| 20260501204600 | 57 | 351 | 0.0 | 11.0 | 0.00 | 0.00 | 0.00 | 54 | 1014.7 |
| 20260501204501 | 57 | 335 | 0.0 | 13.0 | 0.00 | 0.00 | 0.00 | 54 | 1014.7 |
| 20260501204402 | 57 | 5 | 0.0 | 13.0 | 0.00 | 0.00 | 0.00 | 53 | 1014.7 |
| 20260501204301 | 57 | 17 | 1.0 | 13.0 | 0.00 | 0.00 | 0.00 | 54 | 1014.7 |
| 20260501204201 | 57 | 305 | 3.0 | 13.0 | 0.00 | 0.00 | 0.00 | 56 | 1014.6 |
| 20260501204101 | 57 | 340 | 0.0 | 13.0 | 0.00 | 0.00 | 0.00 | 57 | 1014.6 |
| 20260501204001 | 57 | 9 | 1.0 | 13.0 | 0.00 | 0.00 | 0.00 | 55 | 1014.5 |
| 20260501203902 | 57 | 360 | 1.0 | 13.0 | 0.00 | 0.00 | 0.00 | 56 | 1014.6 |
| 20260501203800 | 57 | 44 | 7.0 | 13.0 | 0.00 | 0.00 | 0.00 | 56 | 1014.6 |
| 20260501203603 | 57 | 347 | 2.0 | 6.0 | 0.00 | 0.00 | 0.00 | 58 | 1014.6 |
| 20260501203502 | 57 | 329 | 3.0 | 6.0 | 0.00 | 0.00 | 0.00 | 57 | 1014.6 |
| 20260501203302 | 56 | 5 | 1.0 | 6.0 | 0.00 | 0.00 | 0.00 | 55 | 1014.6 |
| 20260501203201 | 56 | 24 | 1.0 | 6.0 | 0.00 | 0.00 | 0.00 | 53 | 1014.7 |
| 20260501203101 | 57 | 336 | 2.0 | 6.0 | 0.00 | 0.00 | 0.00 | 54 | 1014.7 |
| 20260501203000 | 57 | 320 | 0.0 | 9.0 | 0.00 | 0.00 | 0.00 | 54 | 1014.7 |
| 20260501202900 | 57 | 337 | 2.0 | 9.0 | 0.00 | 0.00 | 0.00 | 53 | 1014.6 |
| 20260501202801 | 57 | 41 | 6.0 | 9.0 | 0.00 | 0.00 | 0.00 | 52 | 1014.6 |
| 20260501202701 | 57 | 319 | 1.0 | 9.0 | 0.00 | 0.00 | 0.00 | 52 | 1014.6 |
| 20260501202501 | 57 | 336 | 2.0 | 9.0 | 0.00 | 0.00 | 0.00 | 53 | 1014.6 |
| 20260501202300 | 57 | 316 | 2.0 | 9.0 | 0.00 | 0.00 | 0.00 | 54 | 1014.7 |
| 20260501202000 | 57 | 315 | 1.0 | 6.0 | 0.00 | 0.00 | 0.00 | 54 | 1014.4 |
| 20260501201900 | 57 | 344 | 0.0 | 6.0 | 0.00 | 0.00 | 0.00 | 53 | 1014.5 |
| 20260501201800 | 57 | 297 | 0.0 | 6.0 | 0.00 | 0.00 | 0.00 | 56 | 1014.5 |
| 20260501201603 | 57 | 341 | 0.0 | 9.0 | 0.00 | 0.00 | 0.00 | 54 | 1014.6 |
| 20260501201500 | 57 | 343 | 1.0 | 9.0 | 0.00 | 0.00 | 0.00 | 54 | 1014.6 |
| 20260501201401 | 57 | 330 | 1.0 | 9.0 | 0.00 | 0.00 | 0.00 | 54 | 1014.5 |
| 20260501201303 | 57 | 313 | 1.0 | 9.0 | 0.00 | 0.00 | 0.00 | 56 | 1014.5 |
| 20260501201200 | 57 | 333 | 3.0 | 9.0 | 0.00 | 0.00 | 0.00 | 56 | 1014.5 |
| 20260501201001 | 56 | 13 | 3.0 | 9.0 | 0.00 | 0.00 | 0.00 | 56 | 1014.6 |
| 20260501200802 | 56 | 30 | 9.0 | 13.0 | 0.00 | 0.00 | 0.00 | 56 | 1014.6 |
| 20260501200701 | 56 | 355 | 5.0 | 13.0 | 0.00 | 0.00 | 0.00 | 55 | 1014.6 |
| 20260501200601 | 56 | 340 | 1.0 | 13.0 | 0.00 | 0.00 | 0.00 | 54 | 1014.6 |
| 20260501200403 | 57 | 333 | 3.0 | 13.0 | 0.00 | 0.00 | 0.00 | 55 | 1014.6 |
| 20260501200300 | 57 | 296 | 1.0 | 13.0 | 0.00 | 0.00 | 0.00 | 55 | 1014.6 |
| 20260501200200 | 57 | 350 | 4.0 | 13.0 | 0.00 | 0.00 | 0.00 | 55 | 1014.6 |
| 20260501200101 | 57 | 360 | 6.0 | 13.0 | 0.00 | 0.00 | 0.00 | 55 | 1014.5 |
| 20260501200003 | 57 | 11 | 4.0 | 13.0 | 0.00 | 0.00 | 0.00 | 53 | 1014.5 |
| 20260501195900 | 57 | 340 | 6.0 | 13.0 | 0.00 | 0.00 | 0.00 | 53 | 1014.4 |
| 20260501195601 | 57 | 291 | 2.0 | 8.0 | 0.00 | 0.00 | 0.00 | 60 | 1014.4 |
| 20260501195500 | 57 | 321 | 1.0 | 12.0 | 0.00 | 0.00 | 0.00 | 59 | 1014.5 |
| 20260501195359 | 57 | 100 | 2.0 | 14.0 | 0.00 | 0.00 | 0.00 | 57 | 1014.5 |
| 20260501195101 | 57 | 156 | 2.0 | 15.0 | 0.00 | 0.00 | 0.00 | 53 | 1014.6 |
| 20260501195001 | 57 | 333 | 3.0 | 15.0 | 0.00 | 0.00 | 0.00 | 55 | 1014.5 |